Wetterdaten: Dienstag, 09.12.2014
Datum Zeit Temp. Aussen +5cm Feuchte Auss Luftdruck Regen Sonnenschein Regendauer Solar Windben
09.12.2014 00:00 2,6 C 1,7 C 97 % 1019,6 hPa 0,0 l/m 0 min 0 min 0 W/m 12,6 km/h (3 Bft)
09.12.2014 00:02 2,6 C 1,7 C 97 % 1019,6 hPa 0,0 l/m 0 min 0 min 0 W/m 12,6 km/h (3 Bft)
09.12.2014 00:05 2,6 C 1,7 C 97 % 1019,6 hPa 0,0 l/m 0 min 0 min 0 W/m 12,6 km/h (3 Bft)
09.12.2014 00:06 2,6 C 1,7 C 97 % 1019,6 hPa 0,0 l/m 0 min 0 min 0 W/m 12,6 km/h (3 Bft)
09.12.2014 00:08 2,6 C 1,7 C 97 % 1019,6 hPa 0,0 l/m 0 min 0 min 0 W/m 14,6 km/h (3 Bft)
09.12.2014 00:10 2,6 C 1,7 C 97 % 1019,5 hPa 0,0 l/m 0 min 0 min 0 W/m 8,4 km/h (2 Bft)
09.12.2014 00:12 2,6 C 1,7 C 97 % 1019,5 hPa 0,0 l/m 0 min 0 min 0 W/m 16,7 km/h (3 Bft)
09.12.2014 00:14 2,6 C 1,7 C 97 % 1019,5 hPa 0,0 l/m 0 min 0 min 0 W/m 14,6 km/h (3 Bft)
09.12.2014 00:16 2,6 C 1,7 C 97 % 1019,4 hPa 0,0 l/m 0 min 0 min 0 W/m 12,6 km/h (3 Bft)
09.12.2014 00:18 2,6 C 1,7 C 97 % 1019,5 hPa 0,0 l/m 0 min 0 min 0 W/m 10,5 km/h (2 Bft)
09.12.2014 00:20 2,6 C 1,7 C 97 % 1019,5 hPa 0,0 l/m 0 min 0 min 0 W/m 14,6 km/h (3 Bft)
09.12.2014 00:22 2,6 C 1,7 C 97 % 1019,5 hPa 0,0 l/m 0 min 0 min 0 W/m 12,6 km/h (3 Bft)
09.12.2014 00:24 2,6 C 1,7 C 97 % 1019,5 hPa 0,0 l/m 0 min 0 min 0 W/m 10,5 km/h (2 Bft)
09.12.2014 00:26 2,6 C 1,7 C 97 % 1019,5 hPa 0,0 l/m 0 min 0 min 0 W/m 14,6 km/h (3 Bft)
09.12.2014 00:28 2,6 C 1,7 C 97 % 1019,5 hPa 0,0 l/m 0 min 0 min 0 W/m 12,6 km/h (3 Bft)
09.12.2014 00:30 2,6 C 1,7 C 97 % 1019,5 hPa 0,0 l/m 0 min 0 min 0 W/m 8,4 km/h (2 Bft)
09.12.2014 00:32 2,6 C 1,7 C 97 % 1019,5 hPa 0,0 l/m 0 min 0 min 0 W/m 12,6 km/h (3 Bft)
09.12.2014 00:34 2,6 C 1,7 C 97 % 1019,5 hPa 0,0 l/m 0 min 0 min 0 W/m 8,4 km/h (2 Bft)
09.12.2014 00:36 2,6 C 1,7 C 97 % 1019,5 hPa 0,0 l/m 0 min 0 min 0 W/m 8,4 km/h (2 Bft)
09.12.2014 00:38 2,6 C 1,7 C 97 % 1019,6 hPa 0,0 l/m 0 min 0 min 0 W/m 10,5 km/h (2 Bft)
09.12.2014 00:40 2,6 C 1,7 C 97 % 1019,6 hPa 0,0 l/m 0 min 0 min 0 W/m 12,6 km/h (3 Bft)
09.12.2014 00:42 2,6 C 1,7 C 97 % 1019,7 hPa 0,0 l/m 0 min 0 min 0 W/m 12,6 km/h (3 Bft)
09.12.2014 00:44 2,5 C 1,7 C 97 % 1019,7 hPa 0,0 l/m 0 min 0 min 0 W/m 10,5 km/h (2 Bft)
09.12.2014 00:46 2,5 C 1,7 C 97 % 1019,8 hPa 0,0 l/m 0 min 0 min 0 W/m 10,5 km/h (2 Bft)
09.12.2014 00:48 2,5 C 1,7 C 97 % 1019,8 hPa 0,0 l/m 0 min 0 min 0 W/m 12,6 km/h (3 Bft)
09.12.2014 00:50 2,5 C 1,1 C 97 % 1019,9 hPa 0,0 l/m 0 min 0 min 0 W/m 12,6 km/h (3 Bft)
09.12.2014 00:52 2,5 C 1,1 C 97 % 1019,9 hPa 0,0 l/m 0 min 0 min 0 W/m 16,7 km/h (3 Bft)
09.12.2014 00:54 2,4 C 1,1 C 97 % 1019,9 hPa 0,0 l/m 0 min 0 min 0 W/m 12,6 km/h (3 Bft)
09.12.2014 00:56 2,4 C 1,1 C 97 % 1020,0 hPa 0,0 l/m 0 min 0 min 0 W/m 10,5 km/h (2 Bft)
09.12.2014 00:58 2,4 C 1,1 C 97 % 1020,0 hPa 0,0 l/m 0 min 0 min 0 W/m 12,6 km/h (3 Bft)
09.12.2014 01:00 2,4 C 1,1 C 97 % 1020,1 hPa 0,0 l/m 0 min 0 min 0 W/m 12,6 km/h (3 Bft)
09.12.2014 01:02 2,4 C 1,1 C 97 % 1020,0 hPa 0,0 l/m 0 min 0 min 0 W/m 10,5 km/h (2 Bft)
09.12.2014 01:05 2,4 C 1,1 C 97 % 1020,1 hPa 0,0 l/m 0 min 0 min 0 W/m 10,5 km/h (2 Bft)
09.12.2014 01:08 2,4 C 1,1 C 97 % 1020,1 hPa 0,0 l/m 0 min 0 min 0 W/m 10,5 km/h (2 Bft)
09.12.2014 01:10 2,3 C 1,1 C 97 % 1020,1 hPa 0,0 l/m 0 min 0 min 0 W/m 8,4 km/h (2 Bft)
09.12.2014 01:12 2,3 C 1,1 C 97 % 1020,2 hPa 0,0 l/m 0 min 0 min 0 W/m 10,5 km/h (2 Bft)
09.12.2014 01:14 2,3 C 1,1 C 97 % 1020,2 hPa 0,0 l/m 0 min 0 min 0 W/m 14,6 km/h (3 Bft)
09.12.2014 01:16 2,3 C 1,1 C 97 % 1020,2 hPa 0,0 l/m 0 min 0 min 0 W/m 10,5 km/h (2 Bft)
09.12.2014 01:18 2,3 C 1,1 C 97 % 1020,2 hPa 0,0 l/m 0 min 0 min 0 W/m 12,6 km/h (3 Bft)
09.12.2014 01:20 2,3 C 1,1 C 97 % 1020,2 hPa 0,0 l/m 0 min 0 min 0 W/m 10,5 km/h (2 Bft)
09.12.2014 01:22 2,3 C 1,1 C 97 % 1020,2 hPa 0,0 l/m 0 min 0 min 0 W/m 12,6 km/h (3 Bft)
09.12.2014 01:24 2,3 C 1,7 C 97 % 1020,2 hPa 0,0 l/m 0 min 0 min 0 W/m 16,7 km/h (3 Bft)
09.12.2014 01:26 2,3 C 1,7 C 97 % 1020,2 hPa 0,0 l/m 0 min 0 min 0 W/m 14,6 km/h (3 Bft)
09.12.2014 01:28 2,3 C 1,7 C 97 % 1020,2 hPa 0,0 l/m 0 min 0 min 0 W/m 14,6 km/h (3 Bft)
09.12.2014 01:30 2,3 C 1,1 C 97 % 1020,2 hPa 0,0 l/m 0 min 0 min 0 W/m 16,7 km/h (3 Bft)
09.12.2014 01:32 2,3 C 1,1 C 97 % 1020,1 hPa 0,0 l/m 0 min 0 min 0 W/m 14,6 km/h (3 Bft)
09.12.2014 01:34 2,3 C 1,1 C 97 % 1020,1 hPa 0,0 l/m 0 min 0 min 0 W/m 12,6 km/h (3 Bft)
09.12.2014 01:36 2,3 C 1,1 C 97 % 1020,1 hPa 0,0 l/m 0 min 0 min 0 W/m 12,6 km/h (3 Bft)
09.12.2014 01:38 2,3 C 1,1 C 97 % 1020,1 hPa 0,0 l/m 0 min 0 min 0 W/m 8,4 km/h (2 Bft)
09.12.2014 01:40 2,3 C 1,1 C 97 % 1020,2 hPa 0,0 l/m 0 min 0 min 0 W/m 10,5 km/h (2 Bft)
09.12.2014 01:42 2,3 C 1,1 C 97 % 1020,2 hPa 0,0 l/m 0 min 0 min 0 W/m 12,6 km/h (3 Bft)
09.12.2014 01:44 2,3 C 1,1 C 97 % 1020,2 hPa 0,0 l/m 0 min 0 min 0 W/m 14,6 km/h (3 Bft)
09.12.2014 01:46 2,3 C 1,1 C 97 % 1020,2 hPa 0,0 l/m 0 min 0 min 0 W/m 8,4 km/h (2 Bft)
09.12.2014 01:48 2,3 C 1,1 C 97 % 1020,2 hPa 0,0 l/m 0 min 0 min 0 W/m 10,5 km/h (2 Bft)
09.12.2014 01:50 2,3 C 1,1 C 97 % 1020,3 hPa 0,0 l/m 0 min 0 min 0 W/m 10,5 km/h (2 Bft)
09.12.2014 01:52 2,3 C 1,1 C 97 % 1020,3 hPa 0,0 l/m 0 min 0 min 0 W/m 8,4 km/h (2 Bft)
09.12.2014 01:54 2,3 C 1,1 C 97 % 1020,3 hPa 0,0 l/m 0 min 0 min 0 W/m 14,6 km/h (3 Bft)
09.12.2014 01:56 2,3 C 1,1 C 97 % 1020,3 hPa 0,0 l/m 0 min 0 min 0 W/m 20,9 km/h (4 Bft)
09.12.2014 01:58 2,3 C 1,1 C 97 % 1020,5 hPa 0,0 l/m 0 min 0 min 0 W/m 20,9 km/h (4 Bft)
09.12.2014 02:00 2,2 C 1,1 C 97 % 1020,5 hPa 0,0 l/m 0 min 0 min 0 W/m 20,9 km/h (4 Bft)
09.12.2014 02:02 2,3 C 1,1 C 97 % 1020,6 hPa 0,0 l/m 0 min 0 min 0 W/m 12,6 km/h (3 Bft)
09.12.2014 02:05 2,3 C 1,1 C 97 % 1020,5 hPa 0,0 l/m 0 min 0 min 0 W/m 25,1 km/h (4 Bft)
09.12.2014 02:06 2,2 C 1,1 C 97 % 1020,5 hPa 0,0 l/m 0 min 0 min 0 W/m 25,1 km/h (4 Bft)
09.12.2014 02:08 2,2 C 1,1 C 97 % 1020,6 hPa 0,0 l/m 0 min 0 min 0 W/m 16,7 km/h (3 Bft)
09.12.2014 02:10 2,2 C 1,1 C 97 % 1020,6 hPa 0,0 l/m 0 min 0 min 0 W/m 16,7 km/h (3 Bft)
09.12.2014 02:12 2,2 C 1,1 C 97 % 1020,6 hPa 0,0 l/m 0 min 0 min 0 W/m 16,7 km/h (3 Bft)
09.12.2014 02:14 2,2 C 1,1 C 97 % 1020,6 hPa 0,0 l/m 0 min 0 min 0 W/m 16,7 km/h (3 Bft)
09.12.2014 02:16 2,2 C 1,1 C 97 % 1020,6 hPa 0,0 l/m 0 min 0 min 0 W/m 10,5 km/h (2 Bft)
09.12.2014 02:18 2,2 C 1,1 C 97 % 1020,6 hPa 0,0 l/m 0 min 0 min 0 W/m 16,7 km/h (3 Bft)
09.12.2014 02:20 2,2 C 1,1 C 97 % 1020,5 hPa 0,0 l/m 0 min 0 min 0 W/m 10,5 km/h (2 Bft)
09.12.2014 02:22 2,2 C 1,1 C 97 % 1020,5 hPa 0,0 l/m 0 min 0 min 0 W/m 12,6 km/h (3 Bft)
09.12.2014 02:24 2,2 C 1,1 C 97 % 1020,6 hPa 0,0 l/m 0 min 0 min 0 W/m 18,8 km/h (3 Bft)
09.12.2014 02:26 2,2 C 1,1 C 97 % 1020,7 hPa 0,0 l/m 0 min 0 min 0 W/m 14,6 km/h (3 Bft)
09.12.2014 02:28 2,2 C 1,1 C 97 % 1020,7 hPa 0,0 l/m 0 min 0 min 0 W/m 20,9 km/h (4 Bft)
09.12.2014 02:30 2,2 C 1,1 C 97 % 1020,7 hPa 0,0 l/m 0 min 0 min 0 W/m 16,7 km/h (3 Bft)
09.12.2014 02:32 2,2 C 1,1 C 97 % 1020,7 hPa 0,0 l/m 0 min 0 min 0 W/m 20,9 km/h (4 Bft)
09.12.2014 02:34 2,2 C 1,1 C 97 % 1020,7 hPa 0,0 l/m 0 min 0 min 0 W/m 12,6 km/h (3 Bft)
09.12.2014 02:36 2,1 C 1,1 C 97 % 1020,7 hPa 0,0 l/m 0 min 0 min 0 W/m 12,6 km/h (3 Bft)
09.12.2014 02:38 2,1 C 0,6 C 97 % 1020,7 hPa 0,0 l/m 0 min 0 min 0 W/m 12,6 km/h (3 Bft)
09.12.2014 02:40 2,1 C 0,6 C 97 % 1020,7 hPa 0,0 l/m 0 min 0 min 0 W/m 12,6 km/h (3 Bft)
09.12.2014 02:42 2,1 C 0,6 C 97 % 1020,7 hPa 0,0 l/m 0 min 0 min 0 W/m 10,5 km/h (2 Bft)
09.12.2014 02:44 2,0 C 0,6 C 97 % 1020,8 hPa 0,0 l/m 0 min 0 min 0 W/m 10,5 km/h (2 Bft)
09.12.2014 02:46 2,0 C 0,6 C 97 % 1020,9 hPa 0,0 l/m 0 min 0 min 0 W/m 6,3 km/h (2 Bft)
09.12.2014 02:48 2,0 C 0,6 C 97 % 1020,9 hPa 0,0 l/m 0 min 0 min 0 W/m 10,5 km/h (2 Bft)
09.12.2014 02:50 1,9 C 0,6 C 97 % 1020,8 hPa 0,0 l/m 0 min 0 min 0 W/m 6,3 km/h (2 Bft)
09.12.2014 02:52 1,9 C 0,6 C 97 % 1020,9 hPa 0,0 l/m 0 min 0 min 0 W/m 6,3 km/h (2 Bft)
09.12.2014 02:54 1,9 C 0,6 C 97 % 1020,9 hPa 0,0 l/m 0 min 0 min 0 W/m 10,5 km/h (2 Bft)
09.12.2014 02:56 1,9 C 0,6 C 97 % 1020,9 hPa 0,0 l/m 0 min 0 min 0 W/m 12,6 km/h (3 Bft)
09.12.2014 02:58 1,9 C 0,6 C 97 % 1021,0 hPa 0,0 l/m 0 min 0 min 0 W/m 10,5 km/h (2 Bft)
09.12.2014 03:00 1,8 C 0,6 C 97 % 1021,0 hPa 0,0 l/m 0 min 0 min 0 W/m 10,5 km/h (2 Bft)
09.12.2014 03:02 1,8 C 0,0 C 97 % 1020,9 hPa 0,0 l/m 0 min 0 min 0 W/m 8,4 km/h (2 Bft)
09.12.2014 03:05 1,8 C 0,0 C 97 % 1021,0 hPa 0,0 l/m 0 min 0 min 0 W/m 10,5 km/h (2 Bft)
09.12.2014 03:08 1,7 C 0,0 C 97 % 1021,1 hPa 0,0 l/m 0 min 0 min 0 W/m 10,5 km/h (2 Bft)
09.12.2014 03:10 1,7 C 0,6 C 97 % 1021,1 hPa 0,0 l/m 0 min 0 min 0 W/m 10,5 km/h (2 Bft)
09.12.2014 03:12 1,7 C 0,6 C 97 % 1021,0 hPa 0,0 l/m 0 min 0 min 0 W/m 12,6 km/h (3 Bft)
09.12.2014 03:14 1,7 C 0,0 C 97 % 1021,0 hPa 0,0 l/m 0 min 0 min 0 W/m 8,4 km/h (2 Bft)
09.12.2014 03:16 1,7 C 0,6 C 97 % 1021,0 hPa 0,0 l/m 0 min 0 min 0 W/m 8,4 km/h (2 Bft)
09.12.2014 03:18 1,6 C 0,6 C 97 % 1021,0 hPa 0,0 l/m 0 min 0 min 0 W/m 10,5 km/h (2 Bft)
09.12.2014 03:20 1,6 C 0,0 C 97 % 1021,1 hPa 0,0 l/m 0 min 0 min 0 W/m 6,3 km/h (2 Bft)
09.12.2014 03:22 1,6 C 0,0 C 97 % 1021,1 hPa 0,0 l/m 0 min 0 min 0 W/m 8,4 km/h (2 Bft)
09.12.2014 03:24 1,6 C 0,0 C 97 % 1021,1 hPa 0,0 l/m 0 min 0 min 0 W/m 8,4 km/h (2 Bft)
09.12.2014 03:26 1,6 C 0,0 C 97 % 1021,1 hPa 0,0 l/m 0 min 0 min 0 W/m 8,4 km/h (2 Bft)
09.12.2014 03:28 1,5 C 0,0 C 97 % 1021,1 hPa 0,0 l/m 0 min 0 min 0 W/m 10,5 km/h (2 Bft)
09.12.2014 03:30 1,5 C -0,2 C 97 % 1021,1 hPa 0,0 l/m 0 min 0 min 0 W/m 8,4 km/h (2 Bft)
09.12.2014 03:32 1,5 C 0,0 C 97 % 1021,2 hPa 0,0 l/m 0 min 0 min 0 W/m 6,3 km/h (2 Bft)
09.12.2014 03:34 1,5 C 0,0 C 97 % 1021,2 hPa 0,0 l/m 0 min 0 min 0 W/m 8,4 km/h (2 Bft)
09.12.2014 03:36 1,4 C 0,0 C 97 % 1021,2 hPa 0,0 l/m 0 min 0 min 0 W/m 4,2 km/h (1 Bft)
09.12.2014 03:38 1,4 C 0,0 C 97 % 1021,2 hPa 0,0 l/m 0 min 0 min 0 W/m 8,4 km/h (2 Bft)
09.12.2014 03:40 1,4 C 0,0 C 97 % 1021,2 hPa 0,0 l/m 0 min 0 min 0 W/m 4,2 km/h (1 Bft)
09.12.2014 03:42 1,4 C 0,0 C 97 % 1021,3 hPa 0,0 l/m 0 min 0 min 0 W/m 6,3 km/h (2 Bft)
09.12.2014 03:44 1,4 C 0,0 C 97 % 1021,3 hPa 0,0 l/m 0 min 0 min 0 W/m 4,2 km/h (1 Bft)
09.12.2014 03:46 1,4 C 0,0 C 97 % 1021,3 hPa 0,0 l/m 0 min 0 min 0 W/m 6,3 km/h (2 Bft)
09.12.2014 03:48 1,4 C 0,6 C 97 % 1021,4 hPa 0,0 l/m 0 min 0 min 0 W/m 12,6 km/h (3 Bft)
09.12.2014 03:50 1,4 C 0,6 C 97 % 1021,5 hPa 0,0 l/m 0 min 0 min 0 W/m 12,6 km/h (3 Bft)
09.12.2014 03:52 1,4 C 0,6 C 97 % 1021,5 hPa 0,0 l/m 0 min 0 min 0 W/m 8,4 km/h (2 Bft)
09.12.2014 03:54 1,4 C 0,6 C 97 % 1021,6 hPa 0,0 l/m 0 min 0 min 0 W/m 6,3 km/h (2 Bft)
09.12.2014 03:56 1,4 C 0,6 C 97 % 1021,6 hPa 0,0 l/m 0 min 0 min 0 W/m 8,4 km/h (2 Bft)
09.12.2014 03:58 1,4 C 0,6 C 97 % 1021,6 hPa 0,0 l/m 0 min 0 min 0 W/m 8,4 km/h (2 Bft)
09.12.2014 04:00 1,4 C 0,6 C 97 % 1021,6 hPa 0,0 l/m 0 min 0 min 0 W/m 8,4 km/h (2 Bft)
09.12.2014 04:02 1,4 C 0,6 C 97 % 1021,6 hPa 0,0 l/m 0 min 0 min 0 W/m 6,3 km/h (2 Bft)
09.12.2014 04:05 1,4 C 0,6 C 97 % 1021,5 hPa 0,0 l/m 0 min 0 min 0 W/m 8,4 km/h (2 Bft)
09.12.2014 04:08 1,4 C 0,6 C 97 % 1021,6 hPa 0,0 l/m 0 min 0 min 0 W/m 8,4 km/h (2 Bft)
09.12.2014 04:10 1,4 C 0,6 C 97 % 1021,5 hPa 0,0 l/m 0 min 0 min 0 W/m 8,4 km/h (2 Bft)
09.12.2014 04:12 1,4 C 0,6 C 97 % 1021,5 hPa 0,0 l/m 0 min 0 min 0 W/m 8,4 km/h (2 Bft)
09.12.2014 04:14 1,4 C 0,6 C 97 % 1021,6 hPa 0,0 l/m 0 min 0 min 0 W/m 6,3 km/h (2 Bft)
09.12.2014 04:16 1,4 C 0,6 C 97 % 1021,6 hPa 0,0 l/m 0 min 0 min 0 W/m 6,3 km/h (2 Bft)
09.12.2014 04:18 1,4 C 0,6 C 97 % 1021,6 hPa 0,0 l/m 0 min 0 min 0 W/m 12,6 km/h (3 Bft)
09.12.2014 04:20 1,4 C 0,6 C 97 % 1021,7 hPa 0,0 l/m 0 min 0 min 0 W/m 6,3 km/h (2 Bft)
09.12.2014 04:22 1,5 C 0,6 C 97 % 1021,7 hPa 0,0 l/m 0 min 0 min 0 W/m 8,4 km/h (2 Bft)
09.12.2014 04:24 1,5 C 1,1 C 97 % 1021,8 hPa 0,0 l/m 0 min 0 min 0 W/m 6,3 km/h (2 Bft)
09.12.2014 04:26 1,5 C 1,1 C 97 % 1021,9 hPa 0,0 l/m 0 min 0 min 0 W/m 6,3 km/h (2 Bft)
09.12.2014 04:28 1,5 C 1,1 C 97 % 1022,0 hPa 0,0 l/m 0 min 0 min 0 W/m 6,3 km/h (2 Bft)
09.12.2014 04:30 1,5 C 1,1 C 97 % 1022,0 hPa 0,0 l/m 0 min 0 min 0 W/m 6,3 km/h (2 Bft)
09.12.2014 04:32 1,6 C 1,1 C 97 % 1022,0 hPa 0,0 l/m 0 min 0 min 0 W/m 8,4 km/h (2 Bft)
09.12.2014 04:34 1,6 C 1,1 C 97 % 1022,0 hPa 0,0 l/m 0 min 0 min 0 W/m 6,3 km/h (2 Bft)
09.12.2014 04:36 1,6 C 1,1 C 97 % 1022,0 hPa 0,0 l/m 0 min 0 min 0 W/m 6,3 km/h (2 Bft)
09.12.2014 04:38 1,6 C 1,1 C 97 % 1022,1 hPa 0,0 l/m 0 min 0 min 0 W/m 6,3 km/h (2 Bft)
09.12.2014 04:40 1,6 C 1,1 C 97 % 1022,1 hPa 0,0 l/m 0 min 0 min 0 W/m 6,3 km/h (2 Bft)
09.12.2014 04:42 1,6 C 1,1 C 97 % 1022,1 hPa 0,0 l/m 0 min 0 min 0 W/m 4,2 km/h (1 Bft)
09.12.2014 04:44 1,6 C 1,1 C 97 % 1022,1 hPa 0,0 l/m 0 min 0 min 0 W/m 6,3 km/h (2 Bft)
09.12.2014 04:46 1,6 C 1,1 C 97 % 1022,0 hPa 0,0 l/m 0 min 0 min 0 W/m 4,2 km/h (1 Bft)
09.12.2014 04:48 1,6 C 1,1 C 97 % 1022,1 hPa 0,0 l/m 0 min 0 min 0 W/m 6,3 km/h (2 Bft)
09.12.2014 04:50 1,7 C 1,1 C 97 % 1022,1 hPa 0,0 l/m 0 min 0 min 0 W/m 6,3 km/h (2 Bft)
09.12.2014 04:52 1,7 C 1,1 C 97 % 1022,1 hPa 0,0 l/m 0 min 0 min 0 W/m 4,2 km/h (1 Bft)
09.12.2014 04:54 1,7 C 1,1 C 97 % 1022,1 hPa 0,0 l/m 0 min 0 min 0 W/m 4,2 km/h (1 Bft)
09.12.2014 04:56 1,7 C 1,1 C 97 % 1022,1 hPa 0,0 l/m 0 min 0 min 0 W/m 6,3 km/h (2 Bft)
09.12.2014 04:58 1,7 C 1,1 C 97 % 1022,1 hPa 0,0 l/m 0 min 2 min 0 W/m 6,3 km/h (2 Bft)
09.12.2014 05:00 1,7 C 1,1 C 97 % 1022,1 hPa 0,0 l/m 0 min 2 min 0 W/m 6,3 km/h (2 Bft)
09.12.2014 05:02 1,7 C 1,1 C 97 % 1022,1 hPa 0,0 l/m 0 min 2 min 0 W/m 6,3 km/h (2 Bft)
09.12.2014 05:05 1,7 C 1,1 C 97 % 1022,2 hPa 0,2 l/m 0 min 2 min 0 W/m 10,5 km/h (2 Bft)
09.12.2014 05:06 1,8 C 1,1 C 97 % 1022,2 hPa 0,2 l/m 0 min 1 min 0 W/m 10,5 km/h (2 Bft)
09.12.2014 05:08 1,7 C 1,1 C 97 % 1022,1 hPa 0,0 l/m 0 min 2 min 0 W/m 6,3 km/h (2 Bft)
09.12.2014 05:10 1,8 C 1,1 C 97 % 1022,1 hPa 0,0 l/m 0 min 2 min 0 W/m 6,3 km/h (2 Bft)
09.12.2014 05:12 1,8 C 1,1 C 97 % 1022,2 hPa 0,0 l/m 0 min 2 min 0 W/m 6,3 km/h (2 Bft)
09.12.2014 05:14 1,8 C 1,1 C 97 % 1022,2 hPa 0,0 l/m 0 min 2 min 0 W/m 6,3 km/h (2 Bft)
09.12.2014 05:16 1,8 C 1,1 C 97 % 1022,1 hPa 0,0 l/m 0 min 2 min 0 W/m 10,5 km/h (2 Bft)
09.12.2014 05:18 1,8 C 1,1 C 97 % 1022,2 hPa 0,0 l/m 0 min 2 min 0 W/m 6,3 km/h (2 Bft)
09.12.2014 05:20 1,8 C 1,1 C 97 % 1022,2 hPa 0,0 l/m 0 min 2 min 0 W/m 4,2 km/h (1 Bft)
09.12.2014 05:22 1,8 C 1,1 C 97 % 1022,2 hPa 0,0 l/m 0 min 2 min 0 W/m 6,3 km/h (2 Bft)
09.12.2014 05:24 1,8 C 1,1 C 97 % 1022,2 hPa 0,0 l/m 0 min 2 min 0 W/m 6,3 km/h (2 Bft)
09.12.2014 05:26 1,8 C 1,1 C 97 % 1022,3 hPa 0,0 l/m 0 min 2 min 0 W/m 6,3 km/h (2 Bft)
09.12.2014 05:28 1,8 C 1,1 C 97 % 1022,3 hPa 0,0 l/m 0 min 2 min 0 W/m 6,3 km/h (2 Bft)
09.12.2014 05:30 1,8 C 1,1 C 97 % 1022,4 hPa 0,0 l/m 0 min 2 min 0 W/m 4,2 km/h (1 Bft)
09.12.2014 05:32 1,8 C 1,1 C 97 % 1022,5 hPa 0,0 l/m 0 min 2 min 0 W/m 6,3 km/h (2 Bft)
09.12.2014 05:34 1,8 C 1,1 C 97 % 1022,4 hPa 0,0 l/m 0 min 2 min 0 W/m 8,4 km/h (2 Bft)
09.12.2014 05:36 1,8 C 1,1 C 97 % 1022,4 hPa 0,0 l/m 0 min 2 min 0 W/m 6,3 km/h (2 Bft)
09.12.2014 05:38 1,8 C 1,1 C 97 % 1022,4 hPa 0,0 l/m 0 min 2 min 0 W/m 8,4 km/h (2 Bft)
09.12.2014 05:40 1,8 C 1,1 C 97 % 1022,5 hPa 0,0 l/m 0 min 2 min 0 W/m 6,3 km/h (2 Bft)
09.12.2014 05:42 1,8 C 1,1 C 97 % 1022,6 hPa 0,0 l/m 0 min 2 min 0 W/m 6,3 km/h (2 Bft)
09.12.2014 05:44 1,8 C 1,1 C 97 % 1022,6 hPa 0,0 l/m 0 min 2 min 0 W/m 2,1 km/h (1 Bft)
09.12.2014 05:46 1,8 C 1,1 C 97 % 1022,5 hPa 0,0 l/m 0 min 2 min 0 W/m 6,3 km/h (2 Bft)
09.12.2014 05:48 1,8 C 1,1 C 97 % 1022,6 hPa 0,0 l/m 0 min 2 min 0 W/m 4,2 km/h (1 Bft)
09.12.2014 05:50 1,8 C 1,1 C 97 % 1022,6 hPa 0,0 l/m 0 min 2 min 0 W/m 6,3 km/h (2 Bft)
09.12.2014 05:52 1,8 C 1,1 C 97 % 1022,7 hPa 0,0 l/m 0 min 0 min 0 W/m 4,2 km/h (1 Bft)
09.12.2014 05:54 1,8 C 1,1 C 97 % 1022,7 hPa 0,0 l/m 0 min 0 min 0 W/m 6,3 km/h (2 Bft)
09.12.2014 05:56 1,8 C 1,1 C 97 % 1022,8 hPa 0,0 l/m 0 min 0 min 0 W/m 4,2 km/h (1 Bft)
09.12.2014 05:58 1,8 C 1,1 C 97 % 1022,8 hPa 0,0 l/m 0 min 0 min 0 W/m 6,3 km/h (2 Bft)
09.12.2014 06:00 1,8 C 1,1 C 97 % 1022,9 hPa 0,0 l/m 0 min 0 min 0 W/m 4,2 km/h (1 Bft)
09.12.2014 06:02 1,8 C 1,1 C 97 % 1022,9 hPa 0,0 l/m 0 min 0 min 0 W/m 4,2 km/h (1 Bft)
09.12.2014 06:05 1,8 C 1,1 C 97 % 1023,0 hPa 0,0 l/m 0 min 0 min 0 W/m 6,3 km/h (2 Bft)
09.12.2014 06:08 1,8 C 1,1 C 97 % 1023,0 hPa 0,0 l/m 0 min 0 min 0 W/m 6,3 km/h (2 Bft)
09.12.2014 06:10 1,8 C 1,1 C 97 % 1023,0 hPa 0,0 l/m 0 min 0 min 0 W/m 4,2 km/h (1 Bft)
09.12.2014 06:12 1,8 C 1,1 C 97 % 1023,1 hPa 0,0 l/m 0 min 0 min 0 W/m 4,2 km/h (1 Bft)
09.12.2014 06:14 1,8 C 1,1 C 97 % 1023,1 hPa 0,0 l/m 0 min 0 min 0 W/m 4,2 km/h (1 Bft)
09.12.2014 06:16 1,9 C 1,1 C 97 % 1023,1 hPa 0,0 l/m 0 min 0 min 0 W/m 4,2 km/h (1 Bft)
09.12.2014 06:18 1,9 C 1,1 C 97 % 1023,0 hPa 0,0 l/m 0 min 0 min 0 W/m 6,3 km/h (2 Bft)
09.12.2014 06:20 1,9 C 1,1 C 97 % 1023,0 hPa 0,0 l/m 0 min 0 min 0 W/m 6,3 km/h (2 Bft)
09.12.2014 06:22 1,9 C 1,1 C 97 % 1023,1 hPa 0,0 l/m 0 min 0 min 0 W/m 4,2 km/h (1 Bft)
09.12.2014 06:24 1,9 C 1,1 C 97 % 1023,1 hPa 0,0 l/m 0 min 0 min 0 W/m 4,2 km/h (1 Bft)
09.12.2014 06:26 1,9 C 1,1 C 97 % 1023,1 hPa 0,0 l/m 0 min 0 min 0 W/m 6,3 km/h (2 Bft)
09.12.2014 06:28 1,9 C 1,1 C 97 % 1023,1 hPa 0,0 l/m 0 min 0 min 0 W/m 8,4 km/h (2 Bft)
09.12.2014 06:30 1,9 C 1,1 C 97 % 1023,1 hPa 0,0 l/m 0 min 0 min 0 W/m 4,2 km/h (1 Bft)
09.12.2014 06:32 1,9 C 1,1 C 97 % 1023,2 hPa 0,0 l/m 0 min 0 min 0 W/m 6,3 km/h (2 Bft)
09.12.2014 06:34 1,9 C 1,1 C 97 % 1023,2 hPa 0,0 l/m 0 min 0 min 0 W/m 6,3 km/h (2 Bft)
09.12.2014 06:36 1,9 C 1,1 C 97 % 1023,2 hPa 0,0 l/m 0 min 0 min 0 W/m 4,2 km/h (1 Bft)
09.12.2014 06:38 1,9 C 1,1 C 97 % 1023,2 hPa 0,0 l/m 0 min 0 min 0 W/m 4,2 km/h (1 Bft)
09.12.2014 06:40 1,9 C 1,1 C 97 % 1023,2 hPa 0,0 l/m 0 min 0 min 0 W/m 4,2 km/h (1 Bft)
09.12.2014 06:42 1,9 C 1,1 C 97 % 1023,2 hPa 0,0 l/m 0 min 0 min 0 W/m 6,3 km/h (2 Bft)
09.12.2014 06:44 2,0 C 1,1 C 97 % 1023,1 hPa 0,0 l/m 0 min 0 min 0 W/m 4,2 km/h (1 Bft)
09.12.2014 06:46 2,0 C 1,1 C 97 % 1023,3 hPa 0,0 l/m 0 min 0 min 0 W/m 4,2 km/h (1 Bft)
09.12.2014 06:48 2,0 C 1,1 C 97 % 1023,2 hPa 0,0 l/m 0 min 0 min 0 W/m 6,3 km/h (2 Bft)
09.12.2014 06:50 2,0 C 1,1 C 97 % 1023,3 hPa 0,0 l/m 0 min 0 min 0 W/m 4,2 km/h (1 Bft)
09.12.2014 06:52 2,0 C 1,1 C 97 % 1023,3 hPa 0,0 l/m 0 min 0 min 0 W/m 6,3 km/h (2 Bft)
09.12.2014 06:54 2,0 C 1,1 C 97 % 1023,4 hPa 0,0 l/m 0 min 0 min 0 W/m 6,3 km/h (2 Bft)
09.12.2014 06:56 2,0 C 1,1 C 97 % 1023,4 hPa 0,0 l/m 0 min 0 min 0 W/m 4,2 km/h (1 Bft)
09.12.2014 06:58 2,0 C 1,1 C 97 % 1023,4 hPa 0,0 l/m 0 min 0 min 0 W/m 6,3 km/h (2 Bft)
09.12.2014 07:00 2,0 C 1,1 C 97 % 1023,4 hPa 0,0 l/m 0 min 0 min 0 W/m 6,3 km/h (2 Bft)
09.12.2014 07:02 2,0 C 1,1 C 97 % 1023,4 hPa 0,0 l/m 0 min 0 min 0 W/m 6,3 km/h (2 Bft)
09.12.2014 07:05 2,0 C 1,1 C 97 % 1023,4 hPa 0,0 l/m 0 min 0 min 0 W/m 8,4 km/h (2 Bft)
09.12.2014 07:08 2,1 C 1,1 C 97 % 1023,5 hPa 0,0 l/m 0 min 0 min 0 W/m 8,4 km/h (2 Bft)
09.12.2014 07:10 2,1 C 1,1 C 97 % 1023,6 hPa 0,0 l/m 0 min 0 min 0 W/m 6,3 km/h (2 Bft)
09.12.2014 07:12 2,1 C 1,1 C 97 % 1023,6 hPa 0,0 l/m 0 min 0 min 0 W/m 4,2 km/h (1 Bft)
09.12.2014 07:14 2,1 C 1,1 C 97 % 1023,7 hPa 0,0 l/m 0 min 0 min 0 W/m 4,2 km/h (1 Bft)
09.12.2014 07:16 2,1 C 1,1 C 97 % 1023,7 hPa 0,0 l/m 0 min 0 min 0 W/m 6,3 km/h (2 Bft)
09.12.2014 07:18 2,1 C 1,1 C 97 % 1023,8 hPa 0,0 l/m 0 min 0 min 0 W/m 6,3 km/h (2 Bft)
09.12.2014 07:20 2,1 C 1,1 C 97 % 1023,9 hPa 0,0 l/m 0 min 0 min 0 W/m 6,3 km/h (2 Bft)
09.12.2014 07:22 2,1 C 1,1 C 97 % 1024,0 hPa 0,0 l/m 0 min 0 min 0 W/m 8,4 km/h (2 Bft)
09.12.2014 07:24 2,1 C 1,1 C 97 % 1024,0 hPa 0,0 l/m 0 min 0 min 0 W/m 8,4 km/h (2 Bft)
09.12.2014 07:26 2,1 C 1,1 C 97 % 1024,0 hPa 0,0 l/m 0 min 0 min 0 W/m 12,6 km/h (3 Bft)
09.12.2014 07:28 2,1 C 1,1 C 97 % 1024,0 hPa 0,0 l/m 0 min 0 min 0 W/m 10,5 km/h (2 Bft)
09.12.2014 07:30 2,1 C 1,1 C 97 % 1024,1 hPa 0,0 l/m 0 min 0 min 0 W/m 6,3 km/h (2 Bft)
09.12.2014 07:32 2,1 C 1,1 C 97 % 1024,1 hPa 0,0 l/m 0 min 0 min 0 W/m 4,2 km/h (1 Bft)
09.12.2014 07:34 2,1 C 1,1 C 97 % 1024,2 hPa 0,0 l/m 0 min 0 min 0 W/m 6,3 km/h (2 Bft)
09.12.2014 07:36 2,1 C 1,1 C 97 % 1024,2 hPa 0,0 l/m 0 min 0 min 0 W/m 2,1 km/h (1 Bft)
09.12.2014 07:38 2,1 C 1,1 C 97 % 1024,3 hPa 0,0 l/m 0 min 0 min 0 W/m 4,2 km/h (1 Bft)
09.12.2014 07:40 2,1 C 1,1 C 97 % 1024,3 hPa 0,0 l/m 0 min 0 min 0 W/m 2,1 km/h (1 Bft)
09.12.2014 07:42 2,1 C 1,1 C 97 % 1024,3 hPa 0,0 l/m 0 min 0 min 0 W/m 2,1 km/h (1 Bft)
09.12.2014 07:44 2,1 C 1,1 C 97 % 1024,4 hPa 0,0 l/m 0 min 0 min 0 W/m 2,1 km/h (1 Bft)
09.12.2014 07:46 2,1 C 1,1 C 97 % 1024,4 hPa 0,0 l/m 0 min 0 min 0 W/m 2,1 km/h (1 Bft)
09.12.2014 07:48 2,1 C 1,1 C 97 % 1024,4 hPa 0,0 l/m 0 min 0 min 0 W/m 0,0 km/h (0 Bft)
09.12.2014 07:50 2,1 C 1,1 C 97 % 1024,5 hPa 0,0 l/m 0 min 0 min 0 W/m 0,0 km/h (0 Bft)
09.12.2014 07:52 2,1 C 1,7 C 97 % 1024,5 hPa 0,0 l/m 0 min 0 min 0 W/m 0,0 km/h (0 Bft)
09.12.2014 07:54 2,1 C 1,1 C 97 % 1024,5 hPa 0,0 l/m 0 min 0 min 0 W/m 0,0 km/h (0 Bft)
09.12.2014 07:56 2,1 C 1,1 C 97 % 1024,6 hPa 0,0 l/m 0 min 0 min 0 W/m 0,0 km/h (0 Bft)
09.12.2014 07:58 2,1 C 1,7 C 97 % 1024,6 hPa 0,0 l/m 0 min 0 min 0 W/m 0,0 km/h (0 Bft)
09.12.2014 08:00 2,1 C 1,1 C 97 % 1024,7 hPa 0,0 l/m 0 min 0 min 0 W/m 0,0 km/h (0 Bft)
09.12.2014 08:02 2,1 C 1,7 C 97 % 1024,7 hPa 0,0 l/m 0 min 0 min 0 W/m 0,0 km/h (0 Bft)
09.12.2014 08:05 2,1 C 1,7 C 97 % 1024,8 hPa 0,0 l/m 0 min 0 min 0 W/m 2,1 km/h (1 Bft)
09.12.2014 08:08 2,1 C 1,7 C 97 % 1024,7 hPa 0,0 l/m 0 min 0 min 0 W/m 6,3 km/h (2 Bft)
09.12.2014 08:10 2,2 C 1,7 C 97 % 1024,7 hPa 0,0 l/m 0 min 0 min 0 W/m 6,3 km/h (2 Bft)
09.12.2014 08:12 2,2 C 1,7 C 97 % 1024,7 hPa 0,0 l/m 0 min 0 min 0 W/m 6,3 km/h (2 Bft)
09.12.2014 08:14 2,2 C 1,1 C 97 % 1024,7 hPa 0,0 l/m 0 min 0 min 0 W/m 4,2 km/h (1 Bft)
09.12.2014 08:16 2,2 C 1,1 C 97 % 1024,7 hPa 0,0 l/m 0 min 0 min 0 W/m 6,3 km/h (2 Bft)
09.12.2014 08:18 2,2 C 1,1 C 97 % 1024,8 hPa 0,0 l/m 0 min 0 min 0 W/m 4,2 km/h (1 Bft)
09.12.2014 08:20 2,2 C 1,1 C 97 % 1024,9 hPa 0,0 l/m 0 min 0 min 0 W/m 2,1 km/h (1 Bft)
09.12.2014 08:22 2,2 C 1,1 C 97 % 1025,0 hPa 0,0 l/m 0 min 0 min 0 W/m 2,1 km/h (1 Bft)
09.12.2014 08:24 2,2 C 1,1 C 97 % 1025,0 hPa 0,0 l/m 0 min 0 min 0 W/m 2,1 km/h (1 Bft)
09.12.2014 08:26 2,2 C 1,1 C 97 % 1025,1 hPa 0,0 l/m 0 min 0 min 0 W/m 4,2 km/h (1 Bft)
09.12.2014 08:28 2,2 C 1,1 C 97 % 1025,1 hPa 0,0 l/m 0 min 0 min 3 W/m 4,2 km/h (1 Bft)
09.12.2014 08:30 2,2 C 1,1 C 97 % 1025,2 hPa 0,0 l/m 0 min 0 min 5 W/m 4,2 km/h (1 Bft)
09.12.2014 08:32 2,2 C 1,1 C 97 % 1025,4 hPa 0,0 l/m 0 min 0 min 5 W/m 0,0 km/h (0 Bft)
09.12.2014 08:34 2,2 C 1,1 C 97 % 1025,5 hPa 0,0 l/m 0 min 0 min 5 W/m 0,0 km/h (0 Bft)
09.12.2014 08:36 2,2 C 1,1 C 97 % 1025,5 hPa 0,0 l/m 0 min 0 min 5 W/m 2,1 km/h (1 Bft)
09.12.2014 08:38 2,2 C 1,1 C 97 % 1025,5 hPa 0,0 l/m 0 min 0 min 5 W/m 2,1 km/h (1 Bft)
09.12.2014 08:40 2,2 C 1,1 C 97 % 1025,6 hPa 0,0 l/m 0 min 0 min 7 W/m 0,0 km/h (0 Bft)
09.12.2014 08:42 2,2 C 1,1 C 97 % 1025,6 hPa 0,0 l/m 0 min 0 min 7 W/m 0,0 km/h (0 Bft)
09.12.2014 08:44 2,2 C 1,1 C 97 % 1025,6 hPa 0,0 l/m 0 min 0 min 7 W/m 2,1 km/h (1 Bft)
09.12.2014 08:46 2,2 C 1,1 C 97 % 1025,5 hPa 0,0 l/m 0 min 0 min 7 W/m 4,2 km/h (1 Bft)
09.12.2014 08:48 2,2 C 1,1 C 97 % 1025,6 hPa 0,0 l/m 0 min 0 min 8 W/m 6,3 km/h (2 Bft)
09.12.2014 08:50 2,2 C 1,1 C 97 % 1025,7 hPa 0,0 l/m 0 min 0 min 10 W/m 6,3 km/h (2 Bft)
09.12.2014 08:52 2,2 C 1,1 C 97 % 1025,8 hPa 0,0 l/m 0 min 0 min 11 W/m 6,3 km/h (2 Bft)
09.12.2014 08:54 2,2 C 1,7 C 97 % 1025,8 hPa 0,0 l/m 0 min 0 min 12 W/m 4,2 km/h (1 Bft)
09.12.2014 08:56 2,2 C 1,7 C 97 % 1025,8 hPa 0,0 l/m 0 min 0 min 12 W/m 2,1 km/h (1 Bft)
09.12.2014 08:58 2,2 C 1,7 C 97 % 1025,8 hPa 0,0 l/m 0 min 0 min 14 W/m 2,1 km/h (1 Bft)
09.12.2014 09:00 2,2 C 1,7 C 97 % 1025,8 hPa 0,0 l/m 0 min 0 min 15 W/m 4,2 km/h (1 Bft)
09.12.2014 09:02 2,2 C 1,7 C 97 % 1025,8 hPa 0,0 l/m 0 min 0 min 16 W/m 4,2 km/h (1 Bft)
09.12.2014 09:05 2,3 C 1,7 C 97 % 1025,9 hPa 0,0 l/m 0 min 0 min 18 W/m 6,3 km/h (2 Bft)
09.12.2014 09:08 2,3 C 1,7 C 98 % 1025,9 hPa 0,0 l/m 0 min 0 min 17 W/m 6,3 km/h (2 Bft)
09.12.2014 09:10 2,3 C 1,7 C 98 % 1025,9 hPa 0,0 l/m 0 min 0 min 18 W/m 4,2 km/h (1 Bft)
09.12.2014 09:12 2,3 C 1,7 C 98 % 1025,8 hPa 0,0 l/m 0 min 0 min 18 W/m 4,2 km/h (1 Bft)
09.12.2014 09:14 2,3 C 1,7 C 98 % 1025,9 hPa 0,0 l/m 0 min 0 min 22 W/m 4,2 km/h (1 Bft)
09.12.2014 09:16 2,3 C 1,7 C 98 % 1025,9 hPa 0,0 l/m 0 min 0 min 25 W/m 4,2 km/h (1 Bft)
09.12.2014 09:18 2,3 C 1,7 C 98 % 1026,0 hPa 0,0 l/m 0 min 0 min 26 W/m 4,2 km/h (1 Bft)
09.12.2014 09:20 2,3 C 1,7 C 98 % 1026,1 hPa 0,0 l/m 0 min 0 min 25 W/m 4,2 km/h (1 Bft)
09.12.2014 09:22 2,3 C 1,7 C 98 % 1026,1 hPa 0,0 l/m 0 min 0 min 26 W/m 4,2 km/h (1 Bft)
09.12.2014 09:24 2,3 C 1,7 C 98 % 1026,1 hPa 0,0 l/m 0 min 0 min 27 W/m 4,2 km/h (1 Bft)
09.12.2014 09:26 2,4 C 1,7 C 98 % 1026,2 hPa 0,0 l/m 0 min 0 min 27 W/m 4,2 km/h (1 Bft)
09.12.2014 09:28 2,4 C 1,7 C 98 % 1026,2 hPa 0,0 l/m 0 min 0 min 28 W/m 4,2 km/h (1 Bft)
09.12.2014 09:30 2,4 C 1,7 C 98 % 1026,3 hPa 0,0 l/m 0 min 0 min 30 W/m 4,2 km/h (1 Bft)
09.12.2014 09:32 2,4 C 1,7 C 98 % 1026,3 hPa 0,0 l/m 0 min 0 min 33 W/m 2,1 km/h (1 Bft)
09.12.2014 09:34 2,4 C 1,7 C 98 % 1026,3 hPa 0,0 l/m 0 min 0 min 33 W/m 4,2 km/h (1 Bft)
09.12.2014 09:36 2,4 C 1,7 C 98 % 1026,4 hPa 0,0 l/m 0 min 0 min 33 W/m 2,1 km/h (1 Bft)
09.12.2014 09:38 2,4 C 2,2 C 98 % 1026,3 hPa 0,0 l/m 0 min 0 min 35 W/m 4,2 km/h (1 Bft)
09.12.2014 09:40 2,4 C 2,2 C 97 % 1026,4 hPa 0,0 l/m 0 min 0 min 33 W/m 4,2 km/h (1 Bft)
09.12.2014 09:42 2,5 C 2,2 C 97 % 1026,4 hPa 0,0 l/m 0 min 0 min 32 W/m 2,1 km/h (1 Bft)
09.12.2014 09:44 2,5 C 2,2 C 97 % 1026,4 hPa 0,0 l/m 0 min 0 min 32 W/m 2,1 km/h (1 Bft)
09.12.2014 09:46 2,5 C 2,2 C 97 % 1026,3 hPa 0,0 l/m 0 min 0 min 31 W/m 2,1 km/h (1 Bft)
09.12.2014 09:48 2,5 C 2,2 C 97 % 1026,4 hPa 0,0 l/m 0 min 0 min 30 W/m 2,1 km/h (1 Bft)
09.12.2014 09:50 2,6 C 2,2 C 97 % 1026,4 hPa 0,0 l/m 0 min 0 min 30 W/m 4,2 km/h (1 Bft)
09.12.2014 09:52 2,6 C 2,2 C 97 % 1026,4 hPa 0,0 l/m 0 min 0 min 32 W/m 2,1 km/h (1 Bft)
09.12.2014 09:54 2,6 C 2,2 C 97 % 1026,5 hPa 0,0 l/m 0 min 0 min 30 W/m 2,1 km/h (1 Bft)
09.12.2014 09:56 2,6 C 2,2 C 97 % 1026,5 hPa 0,0 l/m 0 min 0 min 28 W/m 2,1 km/h (1 Bft)
09.12.2014 09:58 2,6 C 2,2 C 97 % 1026,5 hPa 0,0 l/m 0 min 0 min 26 W/m 2,1 km/h (1 Bft)
09.12.2014 10:00 2,6 C 2,2 C 97 % 1026,5 hPa 0,0 l/m 0 min 0 min 27 W/m 2,1 km/h (1 Bft)
09.12.2014 10:02 2,6 C 2,2 C 97 % 1026,6 hPa 0,0 l/m 0 min 0 min 28 W/m 2,1 km/h (1 Bft)
09.12.2014 10:05 2,6 C 2,2 C 98 % 1026,9 hPa 0,0 l/m 0 min 0 min 30 W/m 4,2 km/h (1 Bft)
09.12.2014 10:08 2,7 C 2,2 C 98 % 1026,9 hPa 0,0 l/m 0 min 0 min 29 W/m 6,3 km/h (2 Bft)
09.12.2014 10:10 2,7 C 2,2 C 98 % 1026,8 hPa 0,0 l/m 0 min 0 min 28 W/m 4,2 km/h (1 Bft)
09.12.2014 10:12 2,7 C 2,2 C 98 % 1026,9 hPa 0,0 l/m 0 min 0 min 28 W/m 4,2 km/h (1 Bft)
09.12.2014 10:14 2,7 C 2,2 C 98 % 1026,9 hPa 0,0 l/m 0 min 0 min 29 W/m 2,1 km/h (1 Bft)
09.12.2014 10:16 2,7 C 2,2 C 98 % 1027,0 hPa 0,0 l/m 0 min 0 min 32 W/m 2,1 km/h (1 Bft)
09.12.2014 10:18 2,7 C 2,2 C 98 % 1027,0 hPa 0,0 l/m 0 min 0 min 32 W/m 2,1 km/h (1 Bft)
09.12.2014 10:20 2,7 C 2,2 C 98 % 1027,1 hPa 0,0 l/m 0 min 0 min 33 W/m 2,1 km/h (1 Bft)
09.12.2014 10:22 2,7 C 2,2 C 98 % 1027,1 hPa 0,0 l/m 0 min 0 min 36 W/m 2,1 km/h (1 Bft)
09.12.2014 10:24 2,7 C 2,2 C 98 % 1027,1 hPa 0,0 l/m 0 min 0 min 36 W/m 4,2 km/h (1 Bft)
09.12.2014 10:26 2,7 C 2,2 C 98 % 1027,1 hPa 0,0 l/m 0 min 0 min 35 W/m 2,1 km/h (1 Bft)
09.12.2014 10:28 2,7 C 2,2 C 98 % 1027,2 hPa 0,0 l/m 0 min 0 min 33 W/m 2,1 km/h (1 Bft)
09.12.2014 10:30 2,7 C 2,2 C 98 % 1027,1 hPa 0,0 l/m 0 min 0 min 33 W/m 4,2 km/h (1 Bft)
09.12.2014 10:32 2,7 C 2,2 C 98 % 1027,1 hPa 0,0 l/m 0 min 0 min 33 W/m 2,1 km/h (1 Bft)
09.12.2014 10:34 2,7 C 2,2 C 98 % 1027,1 hPa 0,0 l/m 0 min 0 min 33 W/m 4,2 km/h (1 Bft)
09.12.2014 10:36 2,7 C 2,2 C 98 % 1027,1 hPa 0,0 l/m 0 min 0 min 34 W/m 2,1 km/h (1 Bft)
09.12.2014 10:38 2,7 C 2,2 C 98 % 1027,1 hPa 0,0 l/m 0 min 0 min 36 W/m 4,2 km/h (1 Bft)
09.12.2014 10:40 2,8 C 2,2 C 98 % 1027,1 hPa 0,0 l/m 0 min 0 min 38 W/m 8,4 km/h (2 Bft)
09.12.2014 10:42 2,8 C 2,2 C 98 % 1027,1 hPa 0,0 l/m 0 min 0 min 39 W/m 8,4 km/h (2 Bft)
09.12.2014 10:44 2,8 C 2,2 C 98 % 1027,1 hPa 0,0 l/m 0 min 0 min 39 W/m 4,2 km/h (1 Bft)
09.12.2014 10:46 2,8 C 2,2 C 98 % 1027,1 hPa 0,0 l/m 0 min 0 min 39 W/m 6,3 km/h (2 Bft)
09.12.2014 10:48 2,8 C 2,2 C 98 % 1027,2 hPa 0,0 l/m 0 min 0 min 36 W/m 8,4 km/h (2 Bft)
09.12.2014 10:50 2,8 C 2,2 C 98 % 1027,2 hPa 0,0 l/m 0 min 0 min 38 W/m 6,3 km/h (2 Bft)
09.12.2014 10:52 2,8 C 2,2 C 98 % 1027,2 hPa 0,0 l/m 0 min 0 min 43 W/m 8,4 km/h (2 Bft)
09.12.2014 10:54 2,8 C 2,2 C 98 % 1027,2 hPa 0,0 l/m 0 min 0 min 47 W/m 4,2 km/h (1 Bft)
09.12.2014 10:56 2,8 C 2,2 C 98 % 1027,1 hPa 0,0 l/m 0 min 0 min 47 W/m 8,4 km/h (2 Bft)
09.12.2014 10:58 2,8 C 2,2 C 98 % 1027,2 hPa 0,0 l/m 0 min 0 min 47 W/m 10,5 km/h (2 Bft)
09.12.2014 11:00 2,8 C 2,2 C 98 % 1027,2 hPa 0,0 l/m 0 min 0 min 49 W/m 8,4 km/h (2 Bft)
09.12.2014 11:02 2,8 C 2,2 C 98 % 1027,2 hPa 0,0 l/m 0 min 0 min 52 W/m 10,5 km/h (2 Bft)
09.12.2014 11:05 2,8 C 2,2 C 98 % 1027,3 hPa 0,0 l/m 0 min 0 min 53 W/m 10,5 km/h (2 Bft)
09.12.2014 11:06 2,8 C 2,2 C 98 % 1027,3 hPa 0,0 l/m 0 min 0 min 52 W/m 10,5 km/h (2 Bft)
09.12.2014 11:08 2,8 C 2,2 C 98 % 1027,3 hPa 0,0 l/m 0 min 0 min 53 W/m 14,6 km/h (3 Bft)
09.12.2014 11:10 2,8 C 2,2 C 98 % 1027,2 hPa 0,0 l/m 0 min 0 min 56 W/m 8,4 km/h (2 Bft)
09.12.2014 11:12 2,8 C 2,2 C 98 % 1027,2 hPa 0,0 l/m 0 min 0 min 57 W/m 8,4 km/h (2 Bft)
09.12.2014 11:14 2,8 C 2,2 C 98 % 1027,2 hPa 0,0 l/m 0 min 0 min 57 W/m 8,4 km/h (2 Bft)
09.12.2014 11:16 2,8 C 2,2 C 98 % 1027,1 hPa 0,0 l/m 0 min 0 min 54 W/m 8,4 km/h (2 Bft)
09.12.2014 11:18 2,8 C 2,2 C 98 % 1027,1 hPa 0,0 l/m 0 min 0 min 51 W/m 6,3 km/h (2 Bft)
09.12.2014 11:20 2,9 C 2,8 C 98 % 1027,1 hPa 0,0 l/m 0 min 0 min 62 W/m 8,4 km/h (2 Bft)
09.12.2014 11:22 2,9 C 2,8 C 98 % 1027,1 hPa 0,0 l/m 0 min 0 min 69 W/m 8,4 km/h (2 Bft)
09.12.2014 11:24 2,9 C 2,8 C 98 % 1027,2 hPa 0,0 l/m 0 min 0 min 55 W/m 8,4 km/h (2 Bft)
09.12.2014 11:26 2,9 C 2,8 C 98 % 1027,3 hPa 0,0 l/m 0 min 0 min 50 W/m 8,4 km/h (2 Bft)
09.12.2014 11:28 2,9 C 2,8 C 98 % 1027,3 hPa 0,0 l/m 0 min 0 min 50 W/m 2,1 km/h (1 Bft)
09.12.2014 11:30 2,9 C 2,8 C 98 % 1027,3 hPa 0,0 l/m 0 min 0 min 53 W/m 4,2 km/h (1 Bft)
09.12.2014 11:32 2,9 C 2,8 C 98 % 1027,3 hPa 0,0 l/m 0 min 0 min 48 W/m 6,3 km/h (2 Bft)
09.12.2014 11:34 3,0 C 2,8 C 98 % 1027,4 hPa 0,0 l/m 0 min 0 min 44 W/m 8,4 km/h (2 Bft)
09.12.2014 11:36 3,0 C 2,8 C 98 % 1027,3 hPa 0,0 l/m 0 min 0 min 45 W/m 8,4 km/h (2 Bft)
09.12.2014 11:38 3,0 C 2,8 C 98 % 1027,3 hPa 0,0 l/m 0 min 0 min 49 W/m 6,3 km/h (2 Bft)
09.12.2014 11:40 3,0 C 2,8 C 98 % 1027,3 hPa 0,0 l/m 0 min 0 min 54 W/m 6,3 km/h (2 Bft)
09.12.2014 11:42 3,1 C 2,8 C 98 % 1027,4 hPa 0,0 l/m 0 min 0 min 51 W/m 10,5 km/h (2 Bft)
09.12.2014 11:44 3,1 C 2,8 C 98 % 1027,6 hPa 0,0 l/m 0 min 0 min 49 W/m 8,4 km/h (2 Bft)
09.12.2014 11:46 3,1 C 2,8 C 98 % 1027,7 hPa 0,0 l/m 0 min 0 min 51 W/m 6,3 km/h (2 Bft)
09.12.2014 11:48 3,1 C 2,8 C 98 % 1027,7 hPa 0,0 l/m 0 min 0 min 54 W/m 8,4 km/h (2 Bft)
09.12.2014 11:50 3,1 C 2,8 C 98 % 1027,7 hPa 0,0 l/m 0 min 0 min 54 W/m 8,4 km/h (2 Bft)
09.12.2014 11:52 3,2 C 2,8 C 98 % 1027,7 hPa 0,0 l/m 0 min 0 min 53 W/m 8,4 km/h (2 Bft)
09.12.2014 11:54 3,2 C 2,8 C 98 % 1027,7 hPa 0,0 l/m 0 min 0 min 51 W/m 8,4 km/h (2 Bft)
09.12.2014 11:56 3,2 C 2,8 C 98 % 1027,7 hPa 0,0 l/m 0 min 0 min 46 W/m 8,4 km/h (2 Bft)
09.12.2014 11:58 3,2 C 2,8 C 98 % 1027,7 hPa 0,0 l/m 0 min 0 min 46 W/m 6,3 km/h (2 Bft)
09.12.2014 12:00 3,2 C 2,8 C 98 % 1027,7 hPa 0,0 l/m 0 min 0 min 44 W/m 8,4 km/h (2 Bft)
09.12.2014 12:02 3,2 C 2,8 C 98 % 1027,7 hPa 0,0 l/m 0 min 0 min 44 W/m 6,3 km/h (2 Bft)
09.12.2014 12:05 3,2 C 2,8 C 98 % 1027,7 hPa 0,0 l/m 0 min 0 min 46 W/m 6,3 km/h (2 Bft)
09.12.2014 12:08 3,2 C 2,8 C 98 % 1027,8 hPa 0,0 l/m 0 min 0 min 46 W/m 6,3 km/h (2 Bft)
09.12.2014 12:10 3,2 C 2,8 C 98 % 1027,9 hPa 0,0 l/m 0 min 0 min 42 W/m 6,3 km/h (2 Bft)
09.12.2014 12:12 3,3 C 2,8 C 98 % 1027,9 hPa 0,0 l/m 0 min 0 min 39 W/m 6,3 km/h (2 Bft)
09.12.2014 12:14 3,3 C 2,8 C 98 % 1027,9 hPa 0,0 l/m 0 min 0 min 41 W/m 6,3 km/h (2 Bft)
09.12.2014 12:16 3,3 C 2,8 C 98 % 1027,9 hPa 0,0 l/m 0 min 0 min 43 W/m 6,3 km/h (2 Bft)
09.12.2014 12:18 3,3 C 2,8 C 98 % 1027,8 hPa 0,0 l/m 0 min 0 min 46 W/m 6,3 km/h (2 Bft)
09.12.2014 12:20 3,3 C 2,8 C 97 % 1027,8 hPa 0,0 l/m 0 min 0 min 48 W/m 8,4 km/h (2 Bft)
09.12.2014 12:22 3,3 C 2,8 C 97 % 1027,8 hPa 0,0 l/m 0 min 0 min 53 W/m 4,2 km/h (1 Bft)
09.12.2014 12:24 3,3 C 2,8 C 97 % 1027,8 hPa 0,0 l/m 0 min 0 min 55 W/m 6,3 km/h (2 Bft)
09.12.2014 12:26 3,4 C 2,8 C 98 % 1027,8 hPa 0,0 l/m 0 min 0 min 55 W/m 10,5 km/h (2 Bft)
09.12.2014 12:28 3,4 C 2,8 C 98 % 1027,8 hPa 0,0 l/m 0 min 0 min 56 W/m 10,5 km/h (2 Bft)
09.12.2014 12:30 3,4 C 2,8 C 98 % 1027,8 hPa 0,0 l/m 0 min 0 min 57 W/m 8,4 km/h (2 Bft)
09.12.2014 12:32 3,4 C 2,8 C 98 % 1027,8 hPa 0,0 l/m 0 min 0 min 47 W/m 6,3 km/h (2 Bft)
09.12.2014 12:34 3,4 C 2,8 C 98 % 1027,7 hPa 0,0 l/m 0 min 0 min 46 W/m 6,3 km/h (2 Bft)
09.12.2014 12:36 3,4 C 2,8 C 98 % 1027,7 hPa 0,0 l/m 0 min 0 min 50 W/m 6,3 km/h (2 Bft)
09.12.2014 12:38 3,4 C 2,8 C 97 % 1027,7 hPa 0,0 l/m 0 min 0 min 50 W/m 4,2 km/h (1 Bft)
09.12.2014 12:40 3,5 C 2,8 C 97 % 1027,9 hPa 0,0 l/m 0 min 0 min 53 W/m 6,3 km/h (2 Bft)
09.12.2014 12:42 3,5 C 2,8 C 97 % 1027,9 hPa 0,0 l/m 0 min 0 min 51 W/m 6,3 km/h (2 Bft)
09.12.2014 12:44 3,5 C 2,8 C 97 % 1027,9 hPa 0,0 l/m 0 min 0 min 52 W/m 8,4 km/h (2 Bft)
09.12.2014 12:46 3,5 C 2,8 C 97 % 1027,9 hPa 0,0 l/m 0 min 0 min 62 W/m 6,3 km/h (2 Bft)
09.12.2014 12:48 3,5 C 2,8 C 97 % 1027,9 hPa 0,0 l/m 0 min 0 min 68 W/m 6,3 km/h (2 Bft)
09.12.2014 12:50 3,6 C 2,8 C 97 % 1028,0 hPa 0,0 l/m 0 min 0 min 63 W/m 4,2 km/h (1 Bft)
09.12.2014 12:52 3,6 C 2,8 C 97 % 1028,0 hPa 0,0 l/m 0 min 0 min 68 W/m 6,3 km/h (2 Bft)
09.12.2014 12:54 3,6 C 3,3 C 97 % 1028,0 hPa 0,0 l/m 0 min 0 min 69 W/m 8,4 km/h (2 Bft)
09.12.2014 12:56 3,6 C 3,3 C 97 % 1028,1 hPa 0,0 l/m 0 min 0 min 72 W/m 6,3 km/h (2 Bft)
09.12.2014 12:58 3,6 C 3,3 C 97 % 1027,9 hPa 0,0 l/m 0 min 0 min 68 W/m 4,2 km/h (1 Bft)
09.12.2014 13:00 3,6 C 3,3 C 97 % 1027,9 hPa 0,0 l/m 0 min 0 min 71 W/m 6,3 km/h (2 Bft)
09.12.2014 13:02 3,6 C 3,3 C 98 % 1027,9 hPa 0,0 l/m 0 min 0 min 64 W/m 6,3 km/h (2 Bft)
09.12.2014 13:05 3,7 C 3,3 C 98 % 1028,0 hPa 0,0 l/m 0 min 0 min 58 W/m 8,4 km/h (2 Bft)
09.12.2014 13:08 3,7 C 3,3 C 97 % 1028,1 hPa 0,0 l/m 0 min 0 min 60 W/m 8,4 km/h (2 Bft)
09.12.2014 13:10 3,7 C 3,3 C 97 % 1028,1 hPa 0,0 l/m 0 min 0 min 67 W/m 10,5 km/h (2 Bft)
09.12.2014 13:12 3,7 C 3,3 C 97 % 1028,1 hPa 0,0 l/m 0 min 0 min 69 W/m 10,5 km/h (2 Bft)
09.12.2014 13:14 3,7 C 3,3 C 97 % 1028,1 hPa 0,0 l/m 0 min 0 min 72 W/m 8,4 km/h (2 Bft)
09.12.2014 13:16 3,7 C 3,3 C 97 % 1028,1 hPa 0,0 l/m 0 min 0 min 79 W/m 8,4 km/h (2 Bft)
09.12.2014 13:18 3,7 C 3,3 C 97 % 1028,0 hPa 0,0 l/m 0 min 0 min 76 W/m 6,3 km/h (2 Bft)
09.12.2014 13:20 3,7 C 3,3 C 97 % 1028,0 hPa 0,0 l/m 0 min 0 min 77 W/m 12,6 km/h (3 Bft)
09.12.2014 13:22 3,7 C 3,3 C 97 % 1027,9 hPa 0,0 l/m 0 min 0 min 81 W/m 12,6 km/h (3 Bft)
09.12.2014 13:24 3,7 C 3,3 C 97 % 1027,9 hPa 0,0 l/m 0 min 0 min 79 W/m 8,4 km/h (2 Bft)
09.12.2014 13:26 3,7 C 3,3 C 97 % 1027,8 hPa 0,0 l/m 0 min 0 min 78 W/m 10,5 km/h (2 Bft)
09.12.2014 13:28 3,7 C 3,3 C 97 % 1027,8 hPa 0,0 l/m 0 min 0 min 83 W/m 10,5 km/h (2 Bft)
09.12.2014 13:30 3,8 C 3,3 C 97 % 1027,8 hPa 0,0 l/m 0 min 0 min 79 W/m 8,4 km/h (2 Bft)
09.12.2014 13:32 3,8 C 3,3 C 97 % 1027,9 hPa 0,0 l/m 0 min 0 min 79 W/m 4,2 km/h (1 Bft)
09.12.2014 13:34 3,8 C 3,3 C 97 % 1027,8 hPa 0,0 l/m 0 min 0 min 78 W/m 6,3 km/h (2 Bft)
09.12.2014 13:36 3,8 C 3,3 C 97 % 1027,8 hPa 0,0 l/m 0 min 0 min 74 W/m 6,3 km/h (2 Bft)
09.12.2014 13:38 3,8 C 3,3 C 97 % 1027,8 hPa 0,0 l/m 0 min 0 min 71 W/m 10,5 km/h (2 Bft)
09.12.2014 13:40 3,8 C 3,3 C 97 % 1027,9 hPa 0,0 l/m 0 min 0 min 70 W/m 10,5 km/h (2 Bft)
09.12.2014 13:42 3,8 C 3,3 C 97 % 1027,9 hPa 0,0 l/m 0 min 0 min 71 W/m 8,4 km/h (2 Bft)
09.12.2014 13:44 3,8 C 3,3 C 97 % 1027,9 hPa 0,0 l/m 0 min 0 min 65 W/m 8,4 km/h (2 Bft)
09.12.2014 13:46 3,8 C 3,3 C 97 % 1027,9 hPa 0,0 l/m 0 min 0 min 59 W/m 4,2 km/h (1 Bft)
09.12.2014 13:48 3,8 C 3,3 C 97 % 1027,9 hPa 0,0 l/m 0 min 0 min 57 W/m 8,4 km/h (2 Bft)
09.12.2014 13:50 3,9 C 3,3 C 97 % 1028,0 hPa 0,0 l/m 0 min 0 min 55 W/m 4,2 km/h (1 Bft)
09.12.2014 13:52 3,9 C 3,3 C 97 % 1028,0 hPa 0,0 l/m 0 min 0 min 52 W/m 8,4 km/h (2 Bft)
09.12.2014 13:54 3,9 C 3,3 C 97 % 1027,9 hPa 0,0 l/m 0 min 0 min 47 W/m 10,5 km/h (2 Bft)
09.12.2014 13:56 3,9 C 3,3 C 97 % 1027,9 hPa 0,0 l/m 0 min 0 min 45 W/m 8,4 km/h (2 Bft)
09.12.2014 13:58 3,9 C 3,3 C 97 % 1027,9 hPa 0,0 l/m 0 min 0 min 43 W/m 8,4 km/h (2 Bft)
09.12.2014 14:00 3,8 C 2,8 C 97 % 1027,9 hPa 0,0 l/m 0 min 0 min 42 W/m 10,5 km/h (2 Bft)
09.12.2014 14:02 3,8 C 2,8 C 97 % 1027,9 hPa 0,0 l/m 0 min 0 min 44 W/m 6,3 km/h (2 Bft)
09.12.2014 14:05 3,8 C 2,8 C 96 % 1028,0 hPa 0,0 l/m 0 min 0 min 46 W/m 6,3 km/h (2 Bft)
09.12.2014 14:08 3,9 C 2,8 C 96 % 1027,9 hPa 0,0 l/m 0 min 0 min 46 W/m 8,4 km/h (2 Bft)
09.12.2014 14:10 3,9 C 2,8 C 96 % 1027,9 hPa 0,0 l/m 0 min 0 min 44 W/m 8,4 km/h (2 Bft)
09.12.2014 14:12 3,8 C 2,8 C 96 % 1027,9 hPa 0,0 l/m 0 min 0 min 41 W/m 10,5 km/h (2 Bft)
09.12.2014 14:14 3,8 C 2,8 C 96 % 1027,9 hPa 0,0 l/m 0 min 0 min 40 W/m 10,5 km/h (2 Bft)
09.12.2014 14:16 3,8 C 2,8 C 96 % 1027,9 hPa 0,0 l/m 0 min 0 min 38 W/m 6,3 km/h (2 Bft)
09.12.2014 14:18 3,8 C 2,8 C 96 % 1028,0 hPa 0,0 l/m 0 min 0 min 35 W/m 6,3 km/h (2 Bft)
09.12.2014 14:20 3,8 C 2,8 C 96 % 1028,1 hPa 0,0 l/m 0 min 0 min 38 W/m 8,4 km/h (2 Bft)
09.12.2014 14:22 3,8 C 2,8 C 96 % 1028,0 hPa 0,0 l/m 0 min 0 min 44 W/m 8,4 km/h (2 Bft)
09.12.2014 14:24 3,8 C 2,8 C 96 % 1027,9 hPa 0,0 l/m 0 min 0 min 51 W/m 12,6 km/h (3 Bft)
09.12.2014 14:26 3,8 C 3,3 C 96 % 1027,9 hPa 0,0 l/m 0 min 0 min 60 W/m 10,5 km/h (2 Bft)
09.12.2014 14:28 3,8 C 3,3 C 96 % 1027,9 hPa 0,0 l/m 0 min 0 min 62 W/m 10,5 km/h (2 Bft)
09.12.2014 14:30 3,8 C 3,3 C 96 % 1028,0 hPa 0,0 l/m 0 min 0 min 61 W/m 10,5 km/h (2 Bft)
09.12.2014 14:32 3,9 C 3,3 C 96 % 1028,0 hPa 0,0 l/m 0 min 0 min 57 W/m 6,3 km/h (2 Bft)
09.12.2014 14:34 3,9 C 3,3 C 95 % 1028,1 hPa 0,0 l/m 0 min 0 min 59 W/m 10,5 km/h (2 Bft)
09.12.2014 14:36 3,9 C 3,3 C 95 % 1028,2 hPa 0,0 l/m 0 min 0 min 54 W/m 12,6 km/h (3 Bft)
09.12.2014 14:38 3,9 C 3,3 C 95 % 1028,2 hPa 0,0 l/m 0 min 0 min 48 W/m 10,5 km/h (2 Bft)
09.12.2014 14:40 3,9 C 3,3 C 95 % 1028,2 hPa 0,0 l/m 0 min 0 min 49 W/m 12,6 km/h (3 Bft)
09.12.2014 14:42 3,9 C 3,3 C 95 % 1028,2 hPa 0,0 l/m 0 min 0 min 44 W/m 10,5 km/h (2 Bft)
09.12.2014 14:44 3,9 C 3,3 C 95 % 1028,3 hPa 0,0 l/m 0 min 0 min 42 W/m 10,5 km/h (2 Bft)
09.12.2014 14:46 3,9 C 2,8 C 95 % 1028,3 hPa 0,0 l/m 0 min 0 min 39 W/m 12,6 km/h (3 Bft)
09.12.2014 14:48 3,9 C 2,8 C 95 % 1028,4 hPa 0,0 l/m 0 min 0 min 40 W/m 12,6 km/h (3 Bft)
09.12.2014 14:50 3,9 C 2,8 C 95 % 1028,4 hPa 0,0 l/m 0 min 0 min 39 W/m 12,6 km/h (3 Bft)
09.12.2014 14:52 3,8 C 2,8 C 94 % 1028,4 hPa 0,0 l/m 0 min 0 min 41 W/m 16,7 km/h (3 Bft)
09.12.2014 14:54 3,8 C 2,8 C 94 % 1028,5 hPa 0,0 l/m 0 min 0 min 40 W/m 14,6 km/h (3 Bft)
09.12.2014 14:56 3,8 C 2,8 C 94 % 1028,4 hPa 0,0 l/m 0 min 0 min 34 W/m 12,6 km/h (3 Bft)
09.12.2014 14:58 3,8 C 2,8 C 94 % 1028,5 hPa 0,0 l/m 0 min 0 min 28 W/m 10,5 km/h (2 Bft)
09.12.2014 15:00 3,8 C 2,8 C 94 % 1028,5 hPa 0,0 l/m 0 min 0 min 26 W/m 10,5 km/h (2 Bft)
09.12.2014 15:02 3,8 C 2,8 C 94 % 1028,5 hPa 0,0 l/m 0 min 0 min 28 W/m 12,6 km/h (3 Bft)
09.12.2014 15:08 3,7 C 2,8 C 94 % 1028,5 hPa 0,0 l/m 0 min 0 min 30 W/m 14,6 km/h (3 Bft)
09.12.2014 15:10 3,7 C 2,8 C 94 % 1028,6 hPa 0,0 l/m 0 min 0 min 24 W/m 10,5 km/h (2 Bft)
09.12.2014 15:12 3,7 C 2,8 C 94 % 1028,6 hPa 0,0 l/m 0 min 0 min 21 W/m 8,4 km/h (2 Bft)
09.12.2014 15:14 3,7 C 2,8 C 94 % 1028,6 hPa 0,0 l/m 0 min 0 min 19 W/m 14,6 km/h (3 Bft)
09.12.2014 15:16 3,7 C 2,8 C 93 % 1028,5 hPa 0,0 l/m 0 min 0 min 19 W/m 10,5 km/h (2 Bft)
09.12.2014 15:18 3,7 C 2,8 C 93 % 1028,4 hPa 0,0 l/m 0 min 0 min 19 W/m 8,4 km/h (2 Bft)
09.12.2014 15:20 3,7 C 2,8 C 93 % 1028,4 hPa 0,0 l/m 0 min 0 min 18 W/m 8,4 km/h (2 Bft)
09.12.2014 15:22 3,6 C 2,8 C 93 % 1028,3 hPa 0,0 l/m 0 min 0 min 18 W/m 12,6 km/h (3 Bft)
09.12.2014 15:24 3,6 C 2,8 C 93 % 1028,3 hPa 0,0 l/m 0 min 0 min 19 W/m 12,6 km/h (3 Bft)
09.12.2014 15:26 3,6 C 2,8 C 93 % 1028,2 hPa 0,0 l/m 0 min 0 min 22 W/m 12,6 km/h (3 Bft)
09.12.2014 15:28 3,6 C 2,8 C 93 % 1028,2 hPa 0,0 l/m 0 min 0 min 20 W/m 8,4 km/h (2 Bft)
09.12.2014 15:30 3,6 C 2,2 C 93 % 1028,3 hPa 0,0 l/m 0 min 0 min 18 W/m 12,6 km/h (3 Bft)
09.12.2014 15:32 3,6 C 2,2 C 93 % 1028,3 hPa 0,0 l/m 0 min 0 min 17 W/m 12,6 km/h (3 Bft)
09.12.2014 15:34 3,5 C 2,2 C 93 % 1028,3 hPa 0,0 l/m 0 min 0 min 15 W/m 12,6 km/h (3 Bft)
09.12.2014 15:36 3,5 C 2,2 C 93 % 1028,4 hPa 0,0 l/m 0 min 0 min 14 W/m 12,6 km/h (3 Bft)
09.12.2014 15:38 3,5 C 2,2 C 93 % 1028,5 hPa 0,0 l/m 0 min 0 min 13 W/m 10,5 km/h (2 Bft)
09.12.2014 15:40 3,5 C 2,2 C 93 % 1028,5 hPa 0,0 l/m 0 min 0 min 14 W/m 10,5 km/h (2 Bft)
09.12.2014 15:42 3,5 C 2,2 C 93 % 1028,4 hPa 0,0 l/m 0 min 0 min 14 W/m 4,2 km/h (1 Bft)
09.12.2014 15:44 3,4 C 2,2 C 93 % 1028,3 hPa 0,0 l/m 0 min 0 min 14 W/m 6,3 km/h (2 Bft)
09.12.2014 15:46 3,4 C 2,2 C 93 % 1028,3 hPa 0,0 l/m 0 min 0 min 12 W/m 6,3 km/h (2 Bft)
09.12.2014 15:48 3,4 C 2,2 C 93 % 1028,4 hPa 0,0 l/m 0 min 0 min 12 W/m 10,5 km/h (2 Bft)
09.12.2014 15:50 3,4 C 2,2 C 93 % 1028,4 hPa 0,0 l/m 0 min 0 min 12 W/m 12,6 km/h (3 Bft)
09.12.2014 15:52 3,4 C 2,2 C 93 % 1028,4 hPa 0,0 l/m 0 min 0 min 11 W/m 12,6 km/h (3 Bft)
09.12.2014 15:54 3,4 C 2,2 C 93 % 1028,4 hPa 0,0 l/m 0 min 0 min 9 W/m 14,6 km/h (3 Bft)
09.12.2014 15:56 3,4 C 2,2 C 93 % 1028,4 hPa 0,0 l/m 0 min 0 min 9 W/m 10,5 km/h (2 Bft)
09.12.2014 15:58 3,4 C 2,2 C 93 % 1028,4 hPa 0,0 l/m 0 min 0 min 9 W/m 6,3 km/h (2 Bft)
09.12.2014 16:00 3,4 C 2,2 C 93 % 1028,4 hPa 0,0 l/m 0 min 0 min 9 W/m 10,5 km/h (2 Bft)
09.12.2014 16:02 3,4 C 2,2 C 93 % 1028,3 hPa 0,0 l/m 0 min 0 min 9 W/m 8,4 km/h (2 Bft)
09.12.2014 16:08 3,4 C 2,2 C 93 % 1028,1 hPa 0,0 l/m 0 min 0 min 9 W/m 8,4 km/h (2 Bft)
09.12.2014 16:10 3,4 C 2,2 C 93 % 1028,1 hPa 0,0 l/m 0 min 0 min 9 W/m 4,2 km/h (1 Bft)
09.12.2014 16:12 3,4 C 2,2 C 93 % 1028,2 hPa 0,0 l/m 0 min 0 min 7 W/m 6,3 km/h (2 Bft)
09.12.2014 16:14 3,4 C 2,2 C 93 % 1028,3 hPa 0,0 l/m 0 min 0 min 9 W/m 4,2 km/h (1 Bft)
09.12.2014 16:16 3,4 C 2,2 C 93 % 1028,2 hPa 0,0 l/m 0 min 0 min 9 W/m 4,2 km/h (1 Bft)
09.12.2014 16:18 3,4 C 2,2 C 93 % 1028,2 hPa 0,0 l/m 0 min 0 min 7 W/m 4,2 km/h (1 Bft)
09.12.2014 16:20 3,4 C 2,2 C 93 % 1028,3 hPa 0,0 l/m 0 min 0 min 5 W/m 4,2 km/h (1 Bft)
09.12.2014 16:22 3,4 C 2,2 C 93 % 1028,3 hPa 0,0 l/m 0 min 0 min 5 W/m 4,2 km/h (1 Bft)
09.12.2014 16:24 3,4 C 2,2 C 93 % 1028,1 hPa 0,0 l/m 0 min 0 min 5 W/m 4,2 km/h (1 Bft)
09.12.2014 16:26 3,4 C 2,2 C 93 % 1028,1 hPa 0,0 l/m 0 min 0 min 5 W/m 4,2 km/h (1 Bft)
09.12.2014 16:28 3,4 C 2,2 C 93 % 1028,0 hPa 0,0 l/m 0 min 0 min 3 W/m 4,2 km/h (1 Bft)
09.12.2014 16:30 3,4 C 2,2 C 93 % 1027,9 hPa 0,0 l/m 0 min 0 min 5 W/m 4,2 km/h (1 Bft)
09.12.2014 16:32 3,3 C 1,7 C 93 % 1027,9 hPa 0,0 l/m 0 min 0 min 5 W/m 6,3 km/h (2 Bft)
09.12.2014 16:34 3,3 C 1,7 C 93 % 1027,9 hPa 0,0 l/m 0 min 0 min 2 W/m 6,3 km/h (2 Bft)
09.12.2014 16:36 3,3 C 1,7 C 93 % 1027,8 hPa 0,0 l/m 0 min 0 min 0 W/m 8,4 km/h (2 Bft)
09.12.2014 16:38 3,3 C 1,7 C 93 % 1027,7 hPa 0,0 l/m 0 min 0 min 0 W/m 8,4 km/h (2 Bft)
09.12.2014 16:40 3,3 C 1,7 C 93 % 1027,6 hPa 0,0 l/m 0 min 0 min 0 W/m 8,4 km/h (2 Bft)
09.12.2014 16:42 3,3 C 1,7 C 93 % 1027,7 hPa 0,0 l/m 0 min 0 min 0 W/m 8,4 km/h (2 Bft)
09.12.2014 16:44 3,3 C 1,7 C 93 % 1027,7 hPa 0,0 l/m 0 min 0 min 0 W/m 8,4 km/h (2 Bft)
09.12.2014 16:46 3,3 C 1,7 C 93 % 1027,6 hPa 0,0 l/m 0 min 0 min 0 W/m 4,2 km/h (1 Bft)
09.12.2014 16:48 3,2 C 1,7 C 93 % 1027,5 hPa 0,0 l/m 0 min 0 min 0 W/m 6,3 km/h (2 Bft)
09.12.2014 16:50 3,2 C 1,7 C 93 % 1027,5 hPa 0,0 l/m 0 min 0 min 0 W/m 4,2 km/h (1 Bft)
09.12.2014 16:52 3,2 C 1,1 C 93 % 1027,6 hPa 0,0 l/m 0 min 0 min 0 W/m 8,4 km/h (2 Bft)
09.12.2014 16:54 3,2 C 1,7 C 93 % 1027,5 hPa 0,0 l/m 0 min 0 min 0 W/m 10,5 km/h (2 Bft)
09.12.2014 16:56 3,2 C 1,7 C 93 % 1027,6 hPa 0,0 l/m 0 min 0 min 0 W/m 8,4 km/h (2 Bft)
09.12.2014 16:58 3,2 C 1,7 C 93 % 1027,7 hPa 0,0 l/m 0 min 0 min 0 W/m 6,3 km/h (2 Bft)
09.12.2014 17:00 3,2 C 1,7 C 93 % 1027,7 hPa 0,0 l/m 0 min 0 min 0 W/m 6,3 km/h (2 Bft)
09.12.2014 17:02 3,1 C 1,7 C 93 % 1027,7 hPa 0,0 l/m 0 min 0 min 0 W/m 8,4 km/h (2 Bft)
09.12.2014 17:05 3,1 C 1,7 C 93 % 1027,7 hPa 0,0 l/m 0 min 0 min 0 W/m 10,5 km/h (2 Bft)
09.12.2014 17:08 3,1 C 1,7 C 93 % 1027,7 hPa 0,0 l/m 0 min 0 min 0 W/m 10,5 km/h (2 Bft)
09.12.2014 17:10 3,1 C 1,7 C 93 % 1027,7 hPa 0,0 l/m 0 min 0 min 0 W/m 6,3 km/h (2 Bft)
09.12.2014 17:12 3,1 C 1,7 C 93 % 1027,7 hPa 0,0 l/m 0 min 0 min 0 W/m 10,5 km/h (2 Bft)
09.12.2014 17:14 3,1 C 1,1 C 93 % 1027,7 hPa 0,0 l/m 0 min 0 min 0 W/m 8,4 km/h (2 Bft)
09.12.2014 17:16 3,0 C 1,1 C 93 % 1027,8 hPa 0,0 l/m 0 min 0 min 0 W/m 8,4 km/h (2 Bft)
09.12.2014 17:18 3,0 C 1,1 C 93 % 1027,7 hPa 0,0 l/m 0 min 0 min 0 W/m 6,3 km/h (2 Bft)
09.12.2014 17:20 3,0 C 1,1 C 93 % 1027,6 hPa 0,0 l/m 0 min 0 min 0 W/m 6,3 km/h (2 Bft)
09.12.2014 17:22 3,0 C 1,1 C 93 % 1027,6 hPa 0,0 l/m 0 min 0 min 0 W/m 4,2 km/h (1 Bft)
09.12.2014 17:24 3,0 C 1,1 C 93 % 1027,6 hPa 0,0 l/m 0 min 0 min 0 W/m 6,3 km/h (2 Bft)
09.12.2014 17:26 2,9 C 1,1 C 93 % 1027,6 hPa 0,0 l/m 0 min 0 min 0 W/m 6,3 km/h (2 Bft)
09.12.2014 17:28 2,9 C 1,1 C 94 % 1027,5 hPa 0,0 l/m 0 min 0 min 0 W/m 6,3 km/h (2 Bft)
09.12.2014 17:30 2,9 C 0,6 C 94 % 1027,5 hPa 0,0 l/m 0 min 0 min 0 W/m 4,2 km/h (1 Bft)
09.12.2014 17:32 2,9 C 0,6 C 94 % 1027,5 hPa 0,0 l/m 0 min 0 min 0 W/m 6,3 km/h (2 Bft)
09.12.2014 17:34 2,9 C 0,6 C 94 % 1027,5 hPa 0,0 l/m 0 min 0 min 0 W/m 6,3 km/h (2 Bft)
09.12.2014 17:36 2,9 C 0,6 C 94 % 1027,5 hPa 0,0 l/m 0 min 0 min 0 W/m 6,3 km/h (2 Bft)
09.12.2014 17:38 2,8 C 0,6 C 94 % 1027,5 hPa 0,0 l/m 0 min 0 min 0 W/m 6,3 km/h (2 Bft)
09.12.2014 17:40 2,8 C 0,6 C 93 % 1027,6 hPa 0,0 l/m 0 min 0 min 0 W/m 6,3 km/h (2 Bft)
09.12.2014 17:42 2,8 C 0,6 C 93 % 1027,6 hPa 0,0 l/m 0 min 0 min 0 W/m 6,3 km/h (2 Bft)
09.12.2014 17:44 2,8 C 0,6 C 93 % 1027,5 hPa 0,0 l/m 0 min 0 min 0 W/m 4,2 km/h (1 Bft)
09.12.2014 17:46 2,7 C 0,6 C 93 % 1027,5 hPa 0,0 l/m 0 min 0 min 0 W/m 6,3 km/h (2 Bft)
09.12.2014 17:48 2,7 C 0,6 C 94 % 1027,5 hPa 0,0 l/m 0 min 0 min 0 W/m 6,3 km/h (2 Bft)
09.12.2014 17:50 2,7 C 0,6 C 94 % 1027,5 hPa 0,0 l/m 0 min 0 min 0 W/m 6,3 km/h (2 Bft)
09.12.2014 17:52 2,7 C 0,6 C 94 % 1027,6 hPa 0,0 l/m 0 min 0 min 0 W/m 10,5 km/h (2 Bft)
09.12.2014 17:54 2,6 C 0,6 C 94 % 1027,7 hPa 0,0 l/m 0 min 0 min 0 W/m 4,2 km/h (1 Bft)
09.12.2014 17:56 2,6 C 0,6 C 94 % 1027,6 hPa 0,0 l/m 0 min 0 min 0 W/m 8,4 km/h (2 Bft)
09.12.2014 17:58 2,6 C 0,6 C 94 % 1027,6 hPa 0,0 l/m 0 min 0 min 0 W/m 6,3 km/h (2 Bft)
09.12.2014 18:00 2,5 C 0,6 C 93 % 1027,6 hPa 0,0 l/m 0 min 0 min 0 W/m 10,5 km/h (2 Bft)
09.12.2014 18:02 2,5 C 0,6 C 93 % 1027,5 hPa 0,0 l/m 0 min 0 min 0 W/m 4,2 km/h (1 Bft)
09.12.2014 18:05 2,4 C 0,6 C 94 % 1027,4 hPa 0,0 l/m 0 min 0 min 0 W/m 8,4 km/h (2 Bft)
09.12.2014 18:08 2,4 C 0,6 C 94 % 1027,4 hPa 0,0 l/m 0 min 0 min 0 W/m 8,4 km/h (2 Bft)
09.12.2014 18:10 2,4 C 0,6 C 94 % 1027,4 hPa 0,0 l/m 0 min 0 min 0 W/m 6,3 km/h (2 Bft)
09.12.2014 18:12 2,4 C 0,6 C 94 % 1027,4 hPa 0,0 l/m 0 min 0 min 0 W/m 8,4 km/h (2 Bft)
09.12.2014 18:14 2,3 C 0,6 C 94 % 1027,4 hPa 0,0 l/m 0 min 0 min 0 W/m 8,4 km/h (2 Bft)
09.12.2014 18:16 2,3 C 0,6 C 94 % 1027,4 hPa 0,0 l/m 0 min 0 min 0 W/m 6,3 km/h (2 Bft)
09.12.2014 18:18 2,3 C 0,6 C 94 % 1027,4 hPa 0,0 l/m 0 min 0 min 0 W/m 8,4 km/h (2 Bft)
09.12.2014 18:20 2,3 C 0,6 C 94 % 1027,4 hPa 0,0 l/m 0 min 0 min 0 W/m 8,4 km/h (2 Bft)
09.12.2014 18:22 2,3 C 0,6 C 94 % 1027,4 hPa 0,0 l/m 0 min 0 min 0 W/m 10,5 km/h (2 Bft)
09.12.2014 18:24 2,3 C 1,1 C 94 % 1027,4 hPa 0,0 l/m 0 min 0 min 0 W/m 10,5 km/h (2 Bft)
09.12.2014 18:26 2,3 C 1,1 C 94 % 1027,4 hPa 0,0 l/m 0 min 0 min 0 W/m 10,5 km/h (2 Bft)
09.12.2014 18:28 2,3 C 1,1 C 94 % 1027,4 hPa 0,0 l/m 0 min 0 min 0 W/m 10,5 km/h (2 Bft)
09.12.2014 18:30 2,3 C 1,1 C 94 % 1027,4 hPa 0,0 l/m 0 min 0 min 0 W/m 12,6 km/h (3 Bft)
09.12.2014 18:32 2,3 C 1,1 C 94 % 1027,5 hPa 0,0 l/m 0 min 0 min 0 W/m 12,6 km/h (3 Bft)
09.12.2014 18:34 2,3 C 1,1 C 94 % 1027,4 hPa 0,0 l/m 0 min 0 min 0 W/m 12,6 km/h (3 Bft)
09.12.2014 18:36 2,3 C 1,1 C 94 % 1027,4 hPa 0,0 l/m 0 min 0 min 0 W/m 10,5 km/h (2 Bft)
09.12.2014 18:38 2,3 C 1,1 C 94 % 1027,4 hPa 0,0 l/m 0 min 0 min 0 W/m 12,6 km/h (3 Bft)
09.12.2014 18:40 2,3 C 1,1 C 94 % 1027,5 hPa 0,0 l/m 0 min 0 min 0 W/m 10,5 km/h (2 Bft)
09.12.2014 18:42 2,3 C 1,1 C 94 % 1027,5 hPa 0,0 l/m 0 min 0 min 0 W/m 10,5 km/h (2 Bft)
09.12.2014 18:44 2,3 C 1,1 C 94 % 1027,4 hPa 0,0 l/m 0 min 0 min 0 W/m 12,6 km/h (3 Bft)
09.12.2014 18:46 2,3 C 1,1 C 94 % 1027,4 hPa 0,0 l/m 0 min 0 min 0 W/m 8,4 km/h (2 Bft)
09.12.2014 18:48 2,3 C 1,1 C 94 % 1027,5 hPa 0,0 l/m 0 min 0 min 0 W/m 10,5 km/h (2 Bft)
09.12.2014 18:50 2,3 C 1,1 C 94 % 1027,5 hPa 0,0 l/m 0 min 0 min 0 W/m 12,6 km/h (3 Bft)
09.12.2014 18:52 2,3 C 1,1 C 94 % 1027,4 hPa 0,0 l/m 0 min 0 min 0 W/m 12,6 km/h (3 Bft)
09.12.2014 18:54 2,3 C 1,1 C 94 % 1027,4 hPa 0,0 l/m 0 min 0 min 0 W/m 12,6 km/h (3 Bft)
09.12.2014 18:56 2,3 C 1,1 C 95 % 1027,3 hPa 0,0 l/m 0 min 0 min 0 W/m 10,5 km/h (2 Bft)
09.12.2014 18:58 2,3 C 1,1 C 95 % 1027,2 hPa 0,0 l/m 0 min 0 min 0 W/m 14,6 km/h (3 Bft)
09.12.2014 19:00 2,3 C 1,1 C 95 % 1027,1 hPa 0,0 l/m 0 min 0 min 0 W/m 16,7 km/h (3 Bft)
09.12.2014 19:02 2,3 C 1,1 C 95 % 1027,0 hPa 0,0 l/m 0 min 0 min 0 W/m 14,6 km/h (3 Bft)
09.12.2014 19:05 2,3 C 1,1 C 95 % 1026,9 hPa 0,0 l/m 0 min 0 min 0 W/m 16,7 km/h (3 Bft)
09.12.2014 19:08 2,3 C 1,7 C 95 % 1026,8 hPa 0,0 l/m 0 min 0 min 0 W/m 18,8 km/h (3 Bft)
09.12.2014 19:10 2,3 C 1,1 C 95 % 1026,9 hPa 0,0 l/m 0 min 0 min 0 W/m 12,6 km/h (3 Bft)
09.12.2014 19:12 2,3 C 1,7 C 95 % 1027,0 hPa 0,0 l/m 0 min 0 min 0 W/m 16,7 km/h (3 Bft)
09.12.2014 19:14 2,4 C 1,7 C 95 % 1026,9 hPa 0,0 l/m 0 min 0 min 0 W/m 18,8 km/h (3 Bft)
09.12.2014 19:16 2,4 C 1,7 C 95 % 1026,8 hPa 0,0 l/m 0 min 0 min 0 W/m 16,7 km/h (3 Bft)
09.12.2014 19:18 2,4 C 1,7 C 95 % 1026,7 hPa 0,0 l/m 0 min 0 min 0 W/m 14,6 km/h (3 Bft)
09.12.2014 19:20 2,4 C 1,7 C 95 % 1026,7 hPa 0,0 l/m 0 min 0 min 0 W/m 16,7 km/h (3 Bft)
09.12.2014 19:22 2,4 C 1,7 C 95 % 1026,7 hPa 0,0 l/m 0 min 0 min 0 W/m 12,6 km/h (3 Bft)
09.12.2014 19:24 2,4 C 1,7 C 95 % 1026,7 hPa 0,0 l/m 0 min 0 min 0 W/m 18,8 km/h (3 Bft)
09.12.2014 19:26 2,4 C 1,7 C 95 % 1026,8 hPa 0,0 l/m 0 min 0 min 0 W/m 10,5 km/h (2 Bft)
09.12.2014 19:28 2,4 C 1,7 C 95 % 1027,0 hPa 0,0 l/m 0 min 0 min 0 W/m 12,6 km/h (3 Bft)
09.12.2014 19:30 2,4 C 1,7 C 95 % 1026,9 hPa 0,0 l/m 0 min 0 min 0 W/m 8,4 km/h (2 Bft)
09.12.2014 19:32 2,4 C 1,7 C 95 % 1026,9 hPa 0,0 l/m 0 min 0 min 0 W/m 12,6 km/h (3 Bft)
09.12.2014 19:34 2,4 C 1,7 C 95 % 1026,8 hPa 0,0 l/m 0 min 0 min 0 W/m 10,5 km/h (2 Bft)
09.12.2014 19:36 2,4 C 1,7 C 95 % 1026,8 hPa 0,0 l/m 0 min 0 min 0 W/m 14,6 km/h (3 Bft)
09.12.2014 19:38 2,4 C 1,7 C 95 % 1026,7 hPa 0,0 l/m 0 min 0 min 0 W/m 12,6 km/h (3 Bft)
09.12.2014 19:40 2,4 C 1,7 C 95 % 1026,7 hPa 0,0 l/m 0 min 0 min 0 W/m 12,6 km/h (3 Bft)
09.12.2014 19:42 2,4 C 1,7 C 95 % 1026,7 hPa 0,0 l/m 0 min 0 min 0 W/m 14,6 km/h (3 Bft)
09.12.2014 19:44 2,4 C 1,7 C 95 % 1026,5 hPa 0,0 l/m 0 min 0 min 0 W/m 8,4 km/h (2 Bft)
09.12.2014 19:46 2,4 C 1,7 C 95 % 1026,6 hPa 0,0 l/m 0 min 0 min 0 W/m 12,6 km/h (3 Bft)
09.12.2014 19:48 2,4 C 1,7 C 95 % 1026,4 hPa 0,0 l/m 0 min 0 min 0 W/m 14,6 km/h (3 Bft)
09.12.2014 19:50 2,4 C 1,7 C 95 % 1026,3 hPa 0,0 l/m 0 min 0 min 0 W/m 14,6 km/h (3 Bft)
09.12.2014 19:52 2,4 C 1,7 C 95 % 1026,3 hPa 0,0 l/m 0 min 0 min 0 W/m 12,6 km/h (3 Bft)
09.12.2014 19:54 2,4 C 1,7 C 95 % 1026,3 hPa 0,0 l/m 0 min 0 min 0 W/m 14,6 km/h (3 Bft)
09.12.2014 19:56 2,4 C 1,7 C 95 % 1026,4 hPa 0,0 l/m 0 min 0 min 0 W/m 12,6 km/h (3 Bft)
09.12.2014 19:58 2,4 C 1,7 C 95 % 1026,3 hPa 0,0 l/m 0 min 0 min 0 W/m 10,5 km/h (2 Bft)
09.12.2014 20:00 2,5 C 1,7 C 95 % 1026,4 hPa 0,0 l/m 0 min 0 min 0 W/m 12,6 km/h (3 Bft)
09.12.2014 20:02 2,5 C 1,7 C 95 % 1026,4 hPa 0,0 l/m 0 min 0 min 0 W/m 14,6 km/h (3 Bft)
09.12.2014 20:04 2,5 C 1,7 C 95 % 1026,4 hPa 0,0 l/m 0 min 0 min 0 W/m 14,6 km/h (3 Bft)
09.12.2014 20:06 2,5 C 1,7 C 95 % 1026,4 hPa 0,0 l/m 0 min 0 min 0 W/m 16,7 km/h (3 Bft)
09.12.2014 20:08 2,5 C 1,7 C 95 % 1026,4 hPa 0,0 l/m 0 min 0 min 0 W/m 18,8 km/h (3 Bft)
09.12.2014 20:10 2,6 C 1,7 C 95 % 1026,3 hPa 0,0 l/m 0 min 0 min 0 W/m 18,8 km/h (3 Bft)
09.12.2014 20:12 2,6 C 1,7 C 95 % 1026,3 hPa 0,0 l/m 0 min 0 min 0 W/m 18,8 km/h (3 Bft)
09.12.2014 20:14 2,6 C 1,7 C 96 % 1026,3 hPa 0,0 l/m 0 min 0 min 0 W/m 25,1 km/h (4 Bft)
09.12.2014 20:16 2,6 C 1,7 C 96 % 1026,3 hPa 0,0 l/m 0 min 0 min 0 W/m 20,9 km/h (4 Bft)
09.12.2014 20:18 2,6 C 1,7 C 95 % 1026,3 hPa 0,0 l/m 0 min 0 min 0 W/m 12,6 km/h (3 Bft)
09.12.2014 20:20 2,6 C 1,7 C 95 % 1026,2 hPa 0,0 l/m 0 min 0 min 0 W/m 18,8 km/h (3 Bft)
09.12.2014 20:22 2,7 C 1,7 C 95 % 1026,2 hPa 0,0 l/m 0 min 0 min 0 W/m 16,7 km/h (3 Bft)
09.12.2014 20:24 2,7 C 1,7 C 95 % 1026,1 hPa 0,0 l/m 0 min 0 min 0 W/m 14,6 km/h (3 Bft)
09.12.2014 20:26 2,7 C 1,7 C 95 % 1026,1 hPa 0,0 l/m 0 min 0 min 0 W/m 12,6 km/h (3 Bft)
09.12.2014 20:28 2,7 C 1,7 C 96 % 1026,0 hPa 0,0 l/m 0 min 0 min 0 W/m 27,2 km/h (4 Bft)
09.12.2014 20:30 2,7 C 2,2 C 96 % 1025,9 hPa 0,0 l/m 0 min 0 min 0 W/m 23,0 km/h (4 Bft)
09.12.2014 20:32 2,7 C 2,2 C 96 % 1026,0 hPa 0,0 l/m 0 min 0 min 0 W/m 20,9 km/h (4 Bft)
09.12.2014 20:34 2,8 C 2,2 C 96 % 1026,0 hPa 0,0 l/m 0 min 0 min 0 W/m 16,7 km/h (3 Bft)
09.12.2014 20:36 2,8 C 2,2 C 96 % 1026,0 hPa 0,0 l/m 0 min 0 min 0 W/m 16,7 km/h (3 Bft)
09.12.2014 20:38 2,8 C 2,2 C 96 % 1026,0 hPa 0,0 l/m 0 min 0 min 0 W/m 20,9 km/h (4 Bft)
09.12.2014 20:40 2,8 C 2,2 C 96 % 1026,0 hPa 0,0 l/m 0 min 0 min 0 W/m 20,9 km/h (4 Bft)
09.12.2014 20:42 2,8 C 2,2 C 96 % 1026,0 hPa 0,0 l/m 0 min 0 min 0 W/m 20,9 km/h (4 Bft)
09.12.2014 20:44 2,8 C 2,2 C 96 % 1026,0 hPa 0,0 l/m 0 min 0 min 0 W/m 25,1 km/h (4 Bft)
09.12.2014 20:46 2,8 C 2,2 C 96 % 1025,9 hPa 0,0 l/m 0 min 0 min 0 W/m 18,8 km/h (3 Bft)
09.12.2014 20:48 2,9 C 2,2 C 96 % 1025,7 hPa 0,0 l/m 0 min 0 min 0 W/m 16,7 km/h (3 Bft)
09.12.2014 20:50 2,9 C 2,2 C 96 % 1025,6 hPa 0,0 l/m 0 min 0 min 0 W/m 20,9 km/h (4 Bft)
09.12.2014 20:52 2,9 C 2,2 C 96 % 1025,5 hPa 0,0 l/m 0 min 0 min 0 W/m 16,7 km/h (3 Bft)
09.12.2014 20:54 2,9 C 2,2 C 96 % 1025,6 hPa 0,0 l/m 0 min 0 min 0 W/m 23,0 km/h (4 Bft)
09.12.2014 20:56 2,9 C 2,2 C 96 % 1025,5 hPa 0,0 l/m 0 min 0 min 0 W/m 14,6 km/h (3 Bft)
09.12.2014 20:58 2,9 C 2,2 C 96 % 1025,5 hPa 0,0 l/m 0 min 0 min 0 W/m 18,8 km/h (3 Bft)
09.12.2014 21:00 2,9 C 2,2 C 96 % 1025,5 hPa 0,0 l/m 0 min 0 min 0 W/m 14,6 km/h (3 Bft)
09.12.2014 21:02 2,9 C 2,2 C 96 % 1025,6 hPa 0,0 l/m 0 min 0 min 0 W/m 12,6 km/h (3 Bft)
09.12.2014 21:04 2,9 C 2,2 C 96 % 1025,6 hPa 0,0 l/m 0 min 0 min 0 W/m 10,5 km/h (2 Bft)
09.12.2014 21:06 2,9 C 2,2 C 96 % 1025,6 hPa 0,0 l/m 0 min 0 min 0 W/m 14,6 km/h (3 Bft)
09.12.2014 21:08 2,9 C 2,2 C 96 % 1025,7 hPa 0,0 l/m 0 min 0 min 0 W/m 14,6 km/h (3 Bft)
09.12.2014 21:10 2,9 C 2,2 C 96 % 1025,6 hPa 0,0 l/m 0 min 0 min 0 W/m 20,9 km/h (4 Bft)
09.12.2014 21:12 2,9 C 2,2 C 96 % 1025,6 hPa 0,0 l/m 0 min 0 min 0 W/m 18,8 km/h (3 Bft)
09.12.2014 21:14 2,9 C 2,2 C 95 % 1025,6 hPa 0,0 l/m 0 min 0 min 0 W/m 18,8 km/h (3 Bft)
09.12.2014 21:16 3,0 C 2,2 C 95 % 1025,5 hPa 0,0 l/m 0 min 0 min 0 W/m 16,7 km/h (3 Bft)
09.12.2014 21:18 3,0 C 2,2 C 95 % 1025,5 hPa 0,0 l/m 0 min 0 min 0 W/m 18,8 km/h (3 Bft)
09.12.2014 21:20 3,0 C 2,2 C 95 % 1025,5 hPa 0,0 l/m 0 min 0 min 0 W/m 16,7 km/h (3 Bft)
09.12.2014 21:22 3,0 C 2,2 C 95 % 1025,6 hPa 0,0 l/m 0 min 0 min 0 W/m 16,7 km/h (3 Bft)
09.12.2014 21:24 3,0 C 2,2 C 95 % 1025,6 hPa 0,0 l/m 0 min 0 min 0 W/m 14,6 km/h (3 Bft)
09.12.2014 21:26 3,1 C 2,2 C 95 % 1025,5 hPa 0,0 l/m 0 min 0 min 0 W/m 14,6 km/h (3 Bft)
09.12.2014 21:28 3,1 C 2,2 C 95 % 1025,5 hPa 0,0 l/m 0 min 0 min 0 W/m 23,0 km/h (4 Bft)
09.12.2014 21:30 3,1 C 2,2 C 96 % 1025,5 hPa 0,0 l/m 0 min 0 min 0 W/m 18,8 km/h (3 Bft)
09.12.2014 21:32 3,1 C 2,2 C 96 % 1025,5 hPa 0,0 l/m 0 min 0 min 0 W/m 18,8 km/h (3 Bft)
09.12.2014 21:34 3,1 C 2,2 C 96 % 1025,4 hPa 0,0 l/m 0 min 0 min 0 W/m 18,8 km/h (3 Bft)
09.12.2014 21:36 3,2 C 2,2 C 96 % 1025,4 hPa 0,0 l/m 0 min 0 min 0 W/m 14,6 km/h (3 Bft)
09.12.2014 21:38 3,2 C 2,2 C 96 % 1025,5 hPa 0,0 l/m 0 min 0 min 0 W/m 20,9 km/h (4 Bft)
09.12.2014 21:40 3,2 C 2,2 C 96 % 1025,4 hPa 0,0 l/m 0 min 0 min 0 W/m 18,8 km/h (3 Bft)
09.12.2014 21:42 3,2 C 2,2 C 96 % 1025,4 hPa 0,0 l/m 0 min 0 min 0 W/m 18,8 km/h (3 Bft)
09.12.2014 21:44 3,2 C 2,2 C 96 % 1025,4 hPa 0,0 l/m 0 min 0 min 0 W/m 14,6 km/h (3 Bft)
09.12.2014 21:46 3,2 C 2,2 C 96 % 1025,5 hPa 0,0 l/m 0 min 0 min 0 W/m 23,0 km/h (4 Bft)
09.12.2014 21:48 3,2 C 2,2 C 96 % 1025,4 hPa 0,0 l/m 0 min 0 min 0 W/m 14,6 km/h (3 Bft)
09.12.2014 21:50 3,3 C 2,2 C 95 % 1025,5 hPa 0,0 l/m 0 min 0 min 0 W/m 16,7 km/h (3 Bft)
09.12.2014 21:52 3,3 C 2,2 C 95 % 1025,5 hPa 0,0 l/m 0 min 0 min 0 W/m 18,8 km/h (3 Bft)
09.12.2014 21:54 3,3 C 2,2 C 95 % 1025,4 hPa 0,0 l/m 0 min 0 min 0 W/m 16,7 km/h (3 Bft)
09.12.2014 21:56 3,3 C 2,2 C 95 % 1025,4 hPa 0,0 l/m 0 min 0 min 0 W/m 16,7 km/h (3 Bft)
09.12.2014 21:58 3,3 C 2,2 C 95 % 1025,4 hPa 0,0 l/m 0 min 0 min 0 W/m 18,8 km/h (3 Bft)
09.12.2014 22:00 3,3 C 2,2 C 95 % 1025,4 hPa 0,0 l/m 0 min 0 min 0 W/m 16,7 km/h (3 Bft)
09.12.2014 22:02 3,3 C 2,2 C 95 % 1025,3 hPa 0,0 l/m 0 min 0 min 0 W/m 18,8 km/h (3 Bft)
09.12.2014 22:04 3,3 C 2,2 C 95 % 1025,2 hPa 0,0 l/m 0 min 0 min 0 W/m 18,8 km/h (3 Bft)
09.12.2014 22:06 3,3 C 2,2 C 95 % 1025,4 hPa 0,0 l/m 0 min 0 min 0 W/m 27,2 km/h (4 Bft)
09.12.2014 22:08 3,3 C 2,2 C 95 % 1025,3 hPa 0,0 l/m 0 min 0 min 0 W/m 18,8 km/h (3 Bft)
09.12.2014 22:10 3,3 C 2,2 C 95 % 1025,4 hPa 0,0 l/m 0 min 0 min 0 W/m 16,7 km/h (3 Bft)
09.12.2014 22:12 3,4 C 2,2 C 95 % 1025,4 hPa 0,0 l/m 0 min 0 min 0 W/m 16,7 km/h (3 Bft)
09.12.2014 22:14 3,4 C 2,2 C 95 % 1025,3 hPa 0,0 l/m 0 min 0 min 0 W/m 14,6 km/h (3 Bft)
09.12.2014 22:16 3,4 C 2,2 C 95 % 1025,3 hPa 0,0 l/m 0 min 0 min 0 W/m 18,8 km/h (3 Bft)
09.12.2014 22:18 3,4 C 2,8 C 95 % 1025,4 hPa 0,0 l/m 0 min 0 min 0 W/m 23,0 km/h (4 Bft)
09.12.2014 22:20 3,4 C 2,8 C 95 % 1025,3 hPa 0,0 l/m 0 min 0 min 0 W/m 16,7 km/h (3 Bft)
09.12.2014 22:22 3,4 C 2,8 C 95 % 1025,3 hPa 0,0 l/m 0 min 0 min 0 W/m 23,0 km/h (4 Bft)
09.12.2014 22:24 3,4 C 2,8 C 95 % 1025,2 hPa 0,0 l/m 0 min 0 min 0 W/m 16,7 km/h (3 Bft)
09.12.2014 22:26 3,4 C 2,8 C 95 % 1025,1 hPa 0,0 l/m 0 min 0 min 0 W/m 18,8 km/h (3 Bft)
09.12.2014 22:28 3,5 C 2,8 C 95 % 1025,0 hPa 0,0 l/m 0 min 0 min 0 W/m 14,6 km/h (3 Bft)
09.12.2014 22:30 3,5 C 2,2 C 95 % 1025,1 hPa 0,0 l/m 0 min 0 min 0 W/m 18,8 km/h (3 Bft)
09.12.2014 22:32 3,5 C 2,2 C 95 % 1025,1 hPa 0,0 l/m 0 min 0 min 0 W/m 16,7 km/h (3 Bft)
09.12.2014 22:34 3,5 C 2,2 C 95 % 1025,2 hPa 0,0 l/m 0 min 0 min 0 W/m 14,6 km/h (3 Bft)
09.12.2014 22:36 3,5 C 2,2 C 95 % 1025,2 hPa 0,0 l/m 0 min 0 min 0 W/m 18,8 km/h (3 Bft)
09.12.2014 22:38 3,5 C 2,2 C 95 % 1025,2 hPa 0,0 l/m 0 min 0 min 0 W/m 16,7 km/h (3 Bft)
09.12.2014 22:40 3,5 C 2,2 C 95 % 1025,2 hPa 0,0 l/m 0 min 0 min 0 W/m 18,8 km/h (3 Bft)
09.12.2014 22:42 3,5 C 2,2 C 95 % 1025,2 hPa 0,0 l/m 0 min 0 min 0 W/m 18,8 km/h (3 Bft)
09.12.2014 22:44 3,5 C 2,2 C 95 % 1025,2 hPa 0,0 l/m 0 min 0 min 0 W/m 16,7 km/h (3 Bft)
09.12.2014 22:46 3,6 C 2,2 C 94 % 1025,1 hPa 0,0 l/m 0 min 0 min 0 W/m 16,7 km/h (3 Bft)
09.12.2014 22:48 3,6 C 2,2 C 94 % 1025,1 hPa 0,0 l/m 0 min 0 min 0 W/m 14,6 km/h (3 Bft)
09.12.2014 22:50 3,6 C 2,2 C 94 % 1025,0 hPa 0,0 l/m 0 min 0 min 0 W/m 18,8 km/h (3 Bft)
09.12.2014 22:52 3,6 C 2,2 C 94 % 1025,0 hPa 0,0 l/m 0 min 0 min 0 W/m 27,2 km/h (4 Bft)
09.12.2014 22:54 3,6 C 2,2 C 94 % 1024,9 hPa 0,0 l/m 0 min 0 min 0 W/m 23,0 km/h (4 Bft)
09.12.2014 22:56 3,6 C 2,2 C 94 % 1024,8 hPa 0,0 l/m 0 min 0 min 0 W/m 14,6 km/h (3 Bft)
09.12.2014 22:58 3,6 C 2,2 C 94 % 1024,7 hPa 0,0 l/m 0 min 0 min 0 W/m 14,6 km/h (3 Bft)
09.12.2014 23:00 3,6 C 2,2 C 94 % 1024,7 hPa 0,0 l/m 0 min 0 min 0 W/m 25,1 km/h (4 Bft)
09.12.2014 23:02 3,6 C 2,2 C 94 % 1024,7 hPa 0,0 l/m 0 min 0 min 0 W/m 23,0 km/h (4 Bft)
09.12.2014 23:04 3,6 C 2,2 C 94 % 1024,6 hPa 0,0 l/m 0 min 0 min 0 W/m 23,0 km/h (4 Bft)
09.12.2014 23:06 3,6 C 2,2 C 93 % 1024,5 hPa 0,0 l/m 0 min 0 min 0 W/m 14,6 km/h (3 Bft)
09.12.2014 23:08 3,6 C 2,2 C 93 % 1024,5 hPa 0,0 l/m 0 min 0 min 0 W/m 18,8 km/h (3 Bft)
09.12.2014 23:10 3,6 C 2,2 C 93 % 1024,4 hPa 0,0 l/m 0 min 0 min 0 W/m 20,9 km/h (4 Bft)
09.12.2014 23:12 3,6 C 2,2 C 93 % 1024,2 hPa 0,0 l/m 0 min 0 min 0 W/m 18,8 km/h (3 Bft)
09.12.2014 23:14 3,6 C 2,2 C 93 % 1024,1 hPa 0,0 l/m 0 min 0 min 0 W/m 23,0 km/h (4 Bft)
09.12.2014 23:16 3,6 C 2,2 C 93 % 1024,1 hPa 0,0 l/m 0 min 0 min 0 W/m 20,9 km/h (4 Bft)
09.12.2014 23:18 3,5 C 2,2 C 93 % 1024,2 hPa 0,0 l/m 0 min 0 min 0 W/m 20,9 km/h (4 Bft)
09.12.2014 23:20 3,5 C 2,2 C 93 % 1024,1 hPa 0,0 l/m 0 min 0 min 0 W/m 16,7 km/h (3 Bft)
09.12.2014 23:22 3,5 C 2,2 C 93 % 1024,1 hPa 0,0 l/m 0 min 0 min 0 W/m 18,8 km/h (3 Bft)
09.12.2014 23:24 3,5 C 2,2 C 93 % 1024,2 hPa 0,0 l/m 0 min 0 min 0 W/m 23,0 km/h (4 Bft)
09.12.2014 23:26 3,5 C 2,2 C 93 % 1024,0 hPa 0,0 l/m 0 min 0 min 0 W/m 23,0 km/h (4 Bft)
09.12.2014 23:28 3,4 C 2,2 C 93 % 1023,9 hPa 0,0 l/m 0 min 0 min 0 W/m 16,7 km/h (3 Bft)
09.12.2014 23:30 3,4 C 2,2 C 93 % 1023,9 hPa 0,0 l/m 0 min 0 min 0 W/m 20,9 km/h (4 Bft)
09.12.2014 23:32 3,4 C 2,2 C 92 % 1023,9 hPa 0,0 l/m 0 min 0 min 0 W/m 23,0 km/h (4 Bft)
09.12.2014 23:34 3,4 C 2,2 C 92 % 1023,9 hPa 0,0 l/m 0 min 0 min 0 W/m 20,9 km/h (4 Bft)
09.12.2014 23:36 3,4 C 2,2 C 92 % 1023,9 hPa 0,0 l/m 0 min 0 min 0 W/m 23,0 km/h (4 Bft)
09.12.2014 23:38 3,4 C 2,2 C 92 % 1024,0 hPa 0,0 l/m 0 min 0 min 0 W/m 18,8 km/h (3 Bft)
09.12.2014 23:40 3,4 C 2,2 C 92 % 1023,9 hPa 0,0 l/m 0 min 0 min 0 W/m 20,9 km/h (4 Bft)
09.12.2014 23:42 3,4 C 2,2 C 92 % 1023,9 hPa 0,0 l/m 0 min 0 min 0 W/m 14,6 km/h (3 Bft)
09.12.2014 23:44 3,4 C 2,2 C 92 % 1023,9 hPa 0,0 l/m 0 min 0 min 0 W/m 20,9 km/h (4 Bft)
09.12.2014 23:46 3,4 C 2,2 C 92 % 1023,8 hPa 0,0 l/m 0 min 0 min 0 W/m 18,8 km/h (3 Bft)
09.12.2014 23:48 3,4 C 2,2 C 92 % 1024,0 hPa 0,0 l/m 0 min 0 min 0 W/m 16,7 km/h (3 Bft)
09.12.2014 23:50 3,4 C 2,2 C 92 % 1024,0 hPa 0,0 l/m 0 min 0 min 0 W/m 12,6 km/h (3 Bft)
09.12.2014 23:52 3,4 C 2,2 C 92 % 1024,0 hPa 0,0 l/m 0 min 0 min 0 W/m 12,6 km/h (3 Bft)
09.12.2014 23:54 3,4 C 2,2 C 92 % 1024,0 hPa 0,0 l/m 0 min 0 min 0 W/m 16,7 km/h (3 Bft)
09.12.2014 23:56 3,4 C 2,2 C 92 % 1024,0 hPa 0,0 l/m 0 min 0 min 0 W/m 18,8 km/h (3 Bft)
09.12.2014 23:58 3,4 C 2,2 C 92 % 1023,9 hPa 0,0 l/m 0 min 0 min 0 W/m 18,8 km/h (3 Bft)
_ Min-Zeit 03:52 03:30 23:32 00:16 - - - - 07:48
Minimum _ 1,3 C -0,2 C 92 % 1019,4 hPa - - - - 0,0 km/h (0 Bft)
_ Max-Zeit 13:50 12:54 09:08 15:10 05:05 00:00 04:58 13:28 20:28
Maximum _ 3,9 C 3,3 C 98 % 1028,6 hPa 0,2 l/m 0 min 2 min 83 W/m 27,2 km/h
S (4 Bft)
Durchschnitt _ 2,7 C 1,7 C 96 % 1025,1 hPa #0,4 l/m #0 min. #53 min. 37 W/m 9,9 km/h (2 Bft)
© 2015 W. Hausmann